GW3448 Weather Reports


Display with metric or nautical units.
time (UTC)temp
F
wind
direction
speed
MPH
gust
MPH
rain 1hr
in
rain 24hr
in
rain mn
in
humidity
%
barometer
mb
20260904071729 58 352 0.0 2.0 0.00 0.00 0.00 60 1008.9
20260904071657 58 352 0.0 2.0 0.00 0.00 0.00 60 1008.9
20260904071141 58 352 0.0 2.0 0.00 0.00 0.00 59 1008.8
20260904071122 58 352 0.0 2.0 0.00 0.00 0.00 59 1008.8
20260904071049 58 352 0.0 2.0 0.00 0.00 0.00 59 1008.8
20260904071029 58 352 0.0 2.0 0.00 0.00 0.00 59 1008.9
20260904071011 59 352 1.0 2.0 0.00 0.00 0.00 59 1008.9
20260904070953 59 352 1.0 2.0 0.00 0.00 0.00 58 1008.9
20260904070932 59 352 1.0 2.0 0.00 0.00 0.00 58 1008.9
20260904070858 59 16 1.0 2.0 0.00 0.00 0.00 58 1008.8
20260904070607 59 98 1.0 4.0 0.00 0.00 0.00 57 1008.9
20260904070546 59 157 1.0 4.0 0.00 0.00 0.00 59 1008.9
20260904070244 59 196 1.0 4.0 0.00 0.00 0.00 58 1008.9
20260904065956 59 119 1.0 4.0 0.00 0.00 0.00 58 1008.9
20260904065707 59 121 1.0 4.0 0.00 0.00 0.00 57 1008.9
20260904065402 59 186 1.0 4.0 0.00 0.00 0.00 58 1008.9
20260904064824 59 201 1.0 4.0 0.00 0.00 0.00 57 1008.8
20260904064752 59 146 2.0 4.0 0.00 0.00 0.00 57 1008.8
20260904064732 59 140 2.0 4.0 0.00 0.00 0.00 57 1008.8
20260904064400 59 147 1.0 4.0 0.00 0.00 0.00 58 1008.8
20260904064300 60 135 1.0 4.0 0.00 0.00 0.00 57 1008.8
20260904064215 60 117 1.0 4.0 0.00 0.00 0.00 57 1008.7
20260904064153 60 76 1.0 4.0 0.00 0.00 0.00 57 1008.7
20260904064134 60 92 1.0 6.0 0.00 0.00 0.00 57 1008.7
20260904063758 60 76 2.0 9.0 0.00 0.00 0.00 56 1008.7
20260904063657 60 88 2.0 9.0 0.00 0.00 0.00 56 1008.7
20260904063556 60 79 2.0 9.0 0.00 0.00 0.00 56 1008.7
20260904063455 60 81 2.0 9.0 0.00 0.00 0.00 56 1008.7
20260904063431 60 103 2.0 9.0 0.00 0.00 0.00 56 1008.7
20260904063412 60 115 3.0 9.0 0.00 0.00 0.00 56 1008.6
20260904063337 60 138 4.0 9.0 0.00 0.00 0.00 56 1008.7
20260904063317 60 111 4.0 9.0 0.00 0.00 0.00 56 1008.6
20260904063024 60 157 4.0 9.0 0.00 0.00 0.00 56 1008.6
20260904062652 60 180 3.0 7.0 0.00 0.00 0.00 56 1008.7
20260904062552 60 157 3.0 8.0 0.00 0.00 0.00 56 1008.6
20260904062451 60 167 4.0 8.0 0.00 0.00 0.00 56 1008.6
20260904062350 60 176 4.0 8.0 0.00 0.00 0.00 56 1008.6
20260904062258 60 175 4.0 9.0 0.00 0.00 0.00 56 1008.6
20260904062221 60 180 3.0 10.0 0.00 0.00 0.00 56 1008.6
20260904062201 60 174 4.0 10.0 0.00 0.00 0.00 56 1008.6
20260904062140 60 157 4.0 10.0 0.00 0.00 0.00 56 1008.6
20260904061845 60 144 3.0 10.0 0.00 0.00 0.00 57 1008.5
20260904061811 60 143 4.0 10.0 0.00 0.00 0.00 56 1008.5
20260904061439 60 136 6.0 10.0 0.00 0.00 0.00 56 1008.5
20260904061339 60 153 5.0 11.0 0.00 0.00 0.00 57 1008.5
20260904061238 60 142 5.0 11.0 0.00 0.00 0.00 57 1008.5
20260904061149 60 140 6.0 11.0 0.00 0.00 0.00 56 1008.5
20260904061127 60 146 6.0 11.0 0.00 0.00 0.00 56 1008.5
20260904061105 60 190 6.0 11.0 0.00 0.00 0.00 56 1008.4
20260904060736 60 92 3.0 12.0 0.00 0.00 0.00 57 1008.3
20260904060634 60 160 5.0 12.0 0.00 0.00 0.00 57 1008.4
20260904060535 60 154 5.0 12.0 0.00 0.00 0.00 57 1008.3
20260904060434 60 146 4.0 12.0 0.00 0.00 0.00 56 1008.4
20260904060358 60 103 4.0 12.0 0.00 0.00 0.00 56 1008.3
20260904060332 60 129 6.0 12.0 0.00 0.00 0.00 56 1008.3
20260904060259 60 149 6.0 12.0 0.00 0.00 0.00 56 1008.3
20260904055930 60 144 5.0 12.0 0.00 0.00 0.00 56 1008.3
20260904055829 60 103 5.0 12.0 0.00 0.00 0.00 56 1008.3
20260904055730 60 134 5.0 11.0 0.00 0.00 0.00 56 1008.3
20260904055629 60 112 4.0 11.0 0.00 0.00 0.00 56 1008.3
20260904055531 60 134 3.0 9.0 0.00 0.00 0.00 57 1008.3
20260904055432 60 130 3.0 9.0 0.00 0.00 0.00 57 1008.3
20260904055330 60 132 4.0 9.0 0.00 0.00 0.00 57 1008.3
20260904055234 60 156 5.0 9.0 0.00 0.00 0.00 57 1008.3
20260904055130 60 130 4.0 8.0 0.00 0.00 0.00 57 1008.2
20260904055043 60 132 3.0 8.0 0.00 0.00 0.00 57 1008.3
20260904055020 60 109 2.0 8.0 0.00 0.00 0.00 57 1008.3
20260904054950 60 116 3.0 8.0 0.00 0.00 0.00 57 1008.2
20260904054928 60 65 3.0 8.0 0.00 0.00 0.00 57 1008.3
20260904054854 60 138 2.0 8.0 0.00 0.00 0.00 57 1008.3
20260904054832 60 76 2.0 8.0 0.00 0.00 0.00 57 1008.3
20260904054542 60 65 2.0 8.0 0.00 0.00 0.00 56 1008.3
20260904054521 61 76 3.0 8.0 0.00 0.00 0.00 57 1008.3
20260904054446 61 142 3.0 8.0 0.00 0.00 0.00 57 1008.3
20260904054156 61 124 2.0 8.0 0.00 0.00 0.00 56 1008.2
20260904054134 61 101 3.0 8.0 0.00 0.00 0.00 56 1008.3
20260904053523 61 153 3.0 8.0 0.00 0.00 0.00 56 1008.2
20260904053423 61 99 2.0 7.0 0.00 0.00 0.00 55 1008.2
20260904053322 61 93 1.0 7.0 0.00 0.00 0.00 55 1008.2
20260904053221 61 109 2.0 7.0 0.00 0.00 0.00 55 1008.2
20260904053119 61 155 3.0 7.0 0.00 0.00 0.00 54 1008.2
20260904053035 61 63 2.0 7.0 0.00 0.00 0.00 54 1008.2
20260904053008 61 145 2.0 7.0 0.00 0.00 0.00 54 1008.2
20260904052949 61 102 2.0 8.0 0.00 0.00 0.00 54 1008.2
20260904052617 61 157 4.0 8.0 0.00 0.00 0.00 54 1008.2
20260904052517 61 148 3.0 8.0 0.00 0.00 0.00 54 1008.2
20260904052416 61 72 3.0 8.0 0.00 0.00 0.00 54 1008.2
20260904052327 61 78 2.0 8.0 0.00 0.00 0.00 54 1008.3
20260904052307 61 86 1.0 8.0 0.00 0.00 0.00 54 1008.2
20260904052230 61 119 2.0 8.0 0.00 0.00 0.00 54 1008.3
20260904052212 61 123 3.0 8.0 0.00 0.00 0.00 54 1008.2
20260904051918 61 124 2.0 7.0 0.00 0.00 0.00 54 1008.3
20260904051857 61 159 2.0 7.0 0.00 0.00 0.00 54 1008.3
20260904051510 61 134 4.0 7.0 0.00 0.00 0.00 54 1008.3
20260904051410 61 131 3.0 8.0 0.00 0.00 0.00 54 1008.3
20260904051310 61 76 2.0 8.0 0.00 0.00 0.00 54 1008.3
20260904051248 61 150 2.0 8.0 0.00 0.00 0.00 54 1008.3
20260904051213 61 135 2.0 8.0 0.00 0.00 0.00 55 1008.3
20260904051151 61 128 2.0 8.0 0.00 0.00 0.00 54 1008.3
20260904051128 61 161 2.0 10.0 0.00 0.00 0.00 54 1008.3
20260904051109 61 74 3.0 12.0 0.00 0.00 0.00 54 1008.3
20260904051048 61 139 3.0 12.0 0.00 0.00 0.00 54 1008.3
20260904051013 61 144 5.0 12.0 0.00 0.00 0.00 53 1008.3
20260904050950 61 136 4.0 12.0 0.00 0.00 0.00 53 1008.3
20260904050930 61 133 3.0 12.0 0.00 0.00 0.00 53 1008.3
20260904050908 61 136 3.0 12.0 0.00 0.00 0.00 53 1008.3
20260904050849 61 63 4.0 12.0 0.00 0.00 0.00 53 1008.3
20260904050545 61 126 6.0 12.0 0.00 0.00 0.00 53 1008.4
20260904050023 61 129 4.0 8.0 0.00 0.00 0.00 53 1008.3
20260904045949 62 163 4.0 8.0 0.00 0.00 0.00 53 1008.3
20260904045659 61 107 4.0 8.0 0.00 0.00 0.00 53 1008.3
20260904045102 62 89 3.0 8.0 0.00 0.00 0.00 54 1008.3
20260904045002 62 152 4.0 8.0 0.00 0.00 0.00 54 1008.3
20260904044937 62 101 3.0 8.0 0.00 0.00 0.00 54 1008.3
20260904044915 62 140 2.0 7.0 0.00 0.00 0.00 54 1008.3
20260904044854 62 104 2.0 6.0 0.00 0.00 0.00 55 1008.3
20260904044821 62 95 2.0 6.0 0.00 0.00 0.00 55 1008.3
20260904044532 62 106 3.0 5.0 0.00 0.00 0.00 55 1008.3
20260904044203 62 95 3.0 5.0 0.00 0.00 0.00 55 1008.2
20260904044101 62 94 3.0 5.0 0.00 0.00 0.00 55 1008.2
20260904044002 62 140 2.0 5.0 0.00 0.00 0.00 55 1008.2
20260904043901 62 81 2.0 4.0 0.00 0.00 0.00 55 1008.2
20260904043802 62 105 2.0 3.0 0.00 0.00 0.00 55 1008.2
20260904043700 62 111 2.0 3.0 0.00 0.00 0.00 54 1008.3
20260904043604 62 86 1.0 3.0 0.00 0.00 0.00 54 1008.2
20260904043511 62 68 0.0 3.0 0.00 0.00 0.00 54 1008.3
20260904043449 62 100 0.0 3.0 0.00 0.00 0.00 55 1008.2
20260904043429 62 151 0.0 4.0 0.00 0.00 0.00 55 1008.2
20260904043127 62 151 0.0 5.0 0.00 0.00 0.00 54 1008.2
20260904043053 62 151 1.0 8.0 0.00 0.00 0.00 54 1008.3
20260904043031 63 146 2.0 8.0 0.00 0.00 0.00 54 1008.3
20260904042724 63 142 2.0 8.0 0.00 0.00 0.00 53 1008.2
20260904042704 63 87 2.0 8.0 0.00 0.00 0.00 53 1008.2
20260904042630 63 98 2.0 8.0 0.00 0.00 0.00 53 1008.2
20260904042306 62 89 4.0 8.0 0.00 0.00 0.00 52 1008.1
20260904042204 62 90 4.0 8.0 0.00 0.00 0.00 52 1008.1
20260904042114 62 142 3.0 8.0 0.00 0.00 0.00 52 1008.0
20260904042002 62 79 2.0 4.0 0.00 0.00 0.00 52 1008.0
20260904041901 62 142 1.0 4.0 0.00 0.00 0.00 53 1008.1
20260904041802 62 46 0.0 3.0 0.00 0.00 0.00 53 1008.0
20260904041718 62 138 0.0 0.0 0.00 0.00 0.00 54 1008.0
20260904041700 62 138 0.0 0.0 0.00 0.00 0.00 54 1008.0
20260904041627 62 138 0.0 0.0 0.00 0.00 0.00 53 1008.0
20260904041301 63 138 0.0 0.0 0.00 0.00 0.00 53 1008.0
20260904041232 63 138 0.0 0.0 0.00 0.00 0.00 53 1007.9
20260904041211 63 138 0.0 0.0 0.00 0.00 0.00 53 1007.9
20260904041140 63 138 0.0 0.0 0.00 0.00 0.00 53 1007.9
20260904041119 63 138 0.0 0.0 0.00 0.00 0.00 53 1007.9
20260904041059 63 138 0.0 0.0 0.00 0.00 0.00 53 1007.8
20260904040511 63 138 0.0 0.0 0.00 0.00 0.00 53 1007.7
20260904040451 63 138 0.0 0.0 0.00 0.00 0.00 53 1007.7
20260904040433 63 138 0.0 0.0 0.00 0.00 0.00 53 1007.7
20260904040133 63 138 0.0 0.0 0.00 0.00 0.00 53 1007.8
20260904040058 63 138 0.0 0.0 0.00 0.00 0.00 53 1007.8
20260904040036 63 138 0.0 0.0 0.00 0.00 0.00 52 1007.7
20260904035743 63 138 0.0 0.0 0.00 0.00 0.00 52 1007.7
20260904035708 63 138 0.0 0.0 0.00 0.00 0.00 52 1007.7
20260904035647 63 138 0.0 0.0 0.00 0.00 0.00 52 1007.7
20260904035402 63 138 0.0 0.0 0.00 0.00 0.00 51 1007.7
20260904035032 64 138 0.0 0.0 0.00 0.00 0.00 52 1007.7
20260904035013 64 138 0.0 0.0 0.00 0.00 0.00 52 1007.7
20260904034951 64 138 0.0 0.0 0.00 0.00 0.00 51 1007.7
20260904034930 64 138 0.0 0.0 0.00 0.00 0.00 51 1007.7
20260904034911 64 138 0.0 0.0 0.00 0.00 0.00 51 1007.7
20260904034837 64 138 0.0 0.0 0.00 0.00 0.00 51 1007.8
20260904034818 64 138 0.0 0.0 0.00 0.00 0.00 51 1007.7
20260904034800 64 138 0.0 0.0 0.00 0.00 0.00 51 1007.7
20260904033932 64 138 0.0 1.0 0.00 0.00 0.00 51 1007.7
20260904033830 64 138 0.0 1.0 0.00 0.00 0.00 51 1007.7
20260904033730 64 138 0.0 1.0 0.00 0.00 0.00 51 1007.6
20260904033631 64 138 0.0 1.0 0.00 0.00 0.00 51 1007.6
20260904033531 64 138 0.0 1.0 0.00 0.00 0.00 51 1007.7
20260904033432 64 138 0.0 1.0 0.00 0.00 0.00 50 1007.6
20260904033331 64 138 0.0 1.0 0.00 0.00 0.00 50 1007.6
20260904033229 64 138 0.0 1.0 0.00 0.00 0.00 50 1007.6
20260904033130 64 91 0.0 0.0 0.00 0.00 0.00 50 1007.6
20260904033049 64 91 0.0 2.0 0.00 0.00 0.00 50 1007.7
20260904033030 64 91 0.0 2.0 0.00 0.00 0.00 50 1007.6
20260904033000 64 91 0.0 3.0 0.00 0.00 0.00 50 1007.7
20260904032629 64 91 0.0 3.0 0.00 0.00 0.00 50 1007.7
20260904032531 64 91 0.0 4.0 0.00 0.00 0.00 49 1007.7
20260904032429 64 91 0.0 5.0 0.00 0.00 0.00 50 1007.6
20260904032330 64 91 0.0 5.0 0.00 0.00 0.00 50 1007.6
20260904032229 64 91 0.0 5.0 0.00 0.00 0.00 49 1007.6
20260904032127 64 91 0.0 5.0 0.00 0.00 0.00 50 1007.7
20260904032015 65 166 1.0 5.0 0.00 0.00 0.00 50 1007.7
20260904031910 65 99 1.0 5.0 0.00 0.00 0.00 50 1007.6
20260904031808 65 78 2.0 5.0 0.00 0.00 0.00 50 1007.6
20260904031734 65 95 2.0 5.0 0.00 0.00 0.00 50 1007.6
20260904031710 65 64 3.0 5.0 0.00 0.00 0.00 50 1007.7
20260904031638 65 98 2.0 5.0 0.00 0.00 0.00 50 1007.7
20260904031306 65 132 1.0 3.0 0.00 0.00 0.00 49 1007.6
20260904031205 65 145 0.0 3.0 0.00 0.00 0.00 49 1007.6
20260904031103 65 145 0.0 3.0 0.00 0.00 0.00 49 1007.6
20260904031001 65 145 1.0 3.0 0.00 0.00 0.00 49 1007.6
20260904030902 65 145 1.0 3.0 0.00 0.00 0.00 50 1007.6
20260904030801 65 135 1.0 3.0 0.00 0.00 0.00 50 1007.6
20260904030726 65 135 1.0 3.0 0.00 0.00 0.00 50 1007.5
20260904030706 65 133 1.0 3.0 0.00 0.00 0.00 50 1007.5
20260904030633 65 109 2.0 3.0 0.00 0.00 0.00 49 1007.5
20260904030303 65 135 2.0 3.0 0.00 0.00 0.00 49 1007.5
20260904030201 65 141 1.0 3.0 0.00 0.00 0.00 49 1007.5
20260904030103 65 144 2.0 3.0 0.00 0.00 0.00 49 1007.4
20260904030001 65 140 2.0 3.0 0.00 0.00 0.00 49 1007.4
20260904025904 65 142 2.0 3.0 0.00 0.00 0.00 49 1007.4
20260904025800 65 144 1.0 2.0 0.00 0.00 0.00 49 1007.4
20260904025702 65 135 1.0 2.0 0.00 0.00 0.00 49 1007.4
20260904025601 65 130 1.0 2.0 0.00 0.00 0.00 49 1007.4
20260904025504 65 121 1.0 2.0 0.00 0.00 0.00 49 1007.3
20260904025414 65 128 1.0 2.0 0.00 0.00 0.00 49 1007.4
20260904025352 65 128 1.0 2.0 0.00 0.00 0.00 49 1007.4
20260904025332 65 117 0.0 2.0 0.00 0.00 0.00 50 1007.4
20260904025002 65 163 1.0 2.0 0.00 0.00 0.00 49 1007.4
20260904024902 65 165 0.0 2.0 0.00 0.00 0.00 49 1007.4
20260904024801 65 159 0.0 3.0 0.00 0.00 0.00 49 1007.5
20260904024706 65 158 0.0 3.0 0.00 0.00 0.00 49 1007.4
20260904024605 65 163 0.0 3.0 0.00 0.00 0.00 49 1007.4
20260904024508 65 167 0.0 3.0 0.00 0.00 0.00 49 1007.4
20260904024415 65 167 0.0 3.0 0.00 0.00 0.00 49 1007.3
20260904024354 65 171 0.0 3.0 0.00 0.00 0.00 49 1007.3
20260904024332 65 171 1.0 3.0 0.00 0.00 0.00 48 1007.3
20260904024001 66 178 1.0 3.0 0.00 0.00 0.00 48 1007.3
20260904023902 66 171 1.0 3.0 0.00 0.00 0.00 48 1007.3
20260904023805 66 167 1.0 3.0 0.00 0.00 0.00 48 1007.3
20260904023702 66 171 1.0 3.0 0.00 0.00 0.00 49 1007.3
20260904023602 66 174 1.0 3.0 0.00 0.00 0.00 49 1007.2
20260904023502 66 157 1.0 3.0 0.00 0.00 0.00 49 1007.3
20260904023401 66 169 1.0 3.0 0.00 0.00 0.00 49 1007.2
20260904023303 66 167 2.0 3.0 0.00 0.00 0.00 49 1007.2
20260904023201 66 161 2.0 2.0 0.00 0.00 0.00 49 1007.2
20260904023103 66 139 1.0 2.0 0.00 0.00 0.00 49 1007.2
20260904023001 66 131 1.0 2.0 0.00 0.00 0.00 49 1007.2
20260904022904 66 144 1.0 2.0 0.00 0.00 0.00 50 1007.2
20260904022801 66 164 1.0 2.0 0.00 0.00 0.00 50 1007.2
20260904022703 66 149 1.0 2.0 0.00 0.00 0.00 50 1007.2
20260904022601 66 149 1.0 2.0 0.00 0.00 0.00 50 1007.3
20260904022502 66 149 0.0 2.0 0.00 0.00 0.00 49 1007.2
20260904022401 66 153 0.0 1.0 0.00 0.00 0.00 50 1007.3
20260904022305 66 177 0.0 1.0 0.00 0.00 0.00 50 1007.3
20260904022202 66 179 0.0 1.0 0.00 0.00 0.00 50 1007.3
20260904022103 66 179 0.0 1.0 0.00 0.00 0.00 50 1007.3
20260904022005 66 179 0.0 1.0 0.00 0.00 0.00 50 1007.3
20260904021906 66 179 0.0 2.0 0.00 0.00 0.00 50 1007.3
20260904021802 66 179 0.0 2.0 0.00 0.00 0.00 50 1007.3
20260904021703 67 179 0.0 3.0 0.00 0.00 0.00 50 1007.3
20260904021601 67 179 0.0 3.0 0.00 0.00 0.00 50 1007.3
20260904021501 67 179 0.0 4.0 0.00 0.00 0.00 50 1007.3
20260904021400 67 179 0.0 4.0 0.00 0.00 0.00 49 1007.3
20260904021324 67 179 0.0 4.0 0.00 0.00 0.00 49 1007.3
20260904021304 67 179 0.0 4.0 0.00 0.00 0.00 49 1007.3
20260904021246 67 179 1.0 4.0 0.00 0.00 0.00 48 1007.3
20260904020903 67 180 2.0 4.0 0.00 0.00 0.00 48 1007.3
20260904020802 67 171 2.0 4.0 0.00 0.00 0.00 48 1007.3
20260904020702 67 186 2.0 4.0 0.00 0.00 0.00 48 1007.3
20260904020601 67 192 1.0 4.0 0.00 0.00 0.00 48 1007.4
20260904020500 67 180 1.0 3.0 0.00 0.00 0.00 48 1007.3
20260904020401 67 174 1.0 2.0 0.00 0.00 0.00 48 1007.3
20260904020300 67 172 1.0 2.0 0.00 0.00 0.00 48 1007.3
20260904020200 67 180 1.0 2.0 0.00 0.00 0.00 48 1007.3
20260904020118 67 171 1.0 2.0 0.00 0.00 0.00 48 1007.4
20260904020042 67 171 1.0 2.0 0.00 0.00 0.00 48 1007.3
20260904020017 67 190 0.0 2.0 0.00 0.00 0.00 48 1007.3
20260904015955 67 174 0.0 2.0 0.00 0.00 0.00 48 1007.4
20260904015935 67 173 0.0 2.0 0.00 0.00 0.00 48 1007.4
20260904015912 67 173 0.0 2.0 0.00 0.00 0.00 48 1007.4
20260904015306 67 167 0.0 2.0 0.00 0.00 0.00 48 1007.4
20260904015202 67 165 0.0 2.0 0.00 0.00 0.00 48 1007.5
20260904015103 67 161 1.0 2.0 0.00 0.00 0.00 48 1007.5
20260904015014 67 161 0.0 2.0 0.00 0.00 0.00 47 1007.5
20260904014902 67 160 0.0 2.0 0.00 0.00 0.00 48 1007.5
20260904014801 67 140 0.0 2.0 0.00 0.00 0.00 47 1007.5
20260904014701 67 140 0.0 2.0 0.00 0.00 0.00 48 1007.5
20260904014601 67 140 0.0 2.0 0.00 0.00 0.00 47 1007.5
20260904014523 67 141 0.0 2.0 0.00 0.00 0.00 48 1007.5
20260904014449 67 141 0.0 2.0 0.00 0.00 0.00 47 1007.5
20260904014431 67 141 1.0 2.0 0.00 0.00 0.00 47 1007.5
20260904014125 67 140 0.0 2.0 0.00 0.00 0.00 46 1007.5
20260904014103 67 116 0.0 2.0 0.00 0.00 0.00 46 1007.5
20260904014029 67 116 0.0 2.0 0.00 0.00 0.00 47 1007.5
20260904013701 68 112 1.0 2.0 0.00 0.00 0.00 46 1007.5
20260904013601 68 112 0.0 4.0 0.00 0.00 0.00 46 1007.5
20260904013507 68 112 0.0 4.0 0.00 0.00 0.00 45 1007.5
20260904013401 68 113 0.0 4.0 0.00 0.00 0.00 45 1007.5
20260904013302 68 113 0.0 4.0 0.00 0.00 0.00 45 1007.5
20260904013202 68 112 0.0 4.0 0.00 0.00 0.00 45 1007.5
20260904013101 68 105 0.0 4.0 0.00 0.00 0.00 46 1007.5
20260904013008 68 104 0.0 4.0 0.00 0.00 0.00 45 1007.5
20260904012904 68 84 1.0 4.0 0.00 0.00 0.00 45 1007.5
20260904012802 68 140 1.0 4.0 0.00 0.00 0.00 46 1007.5
20260904012736 68 145 0.0 4.0 0.00 0.00 0.00 45 1007.6
20260904012715 68 107 0.0 2.0 0.00 0.00 0.00 45 1007.5
20260904012655 68 121 1.0 2.0 0.00 0.00 0.00 43 1007.5
20260904012621 68 120 0.0 2.0 0.00 0.00 0.00 43 1007.5
20260904012330 68 162 0.0 2.0 0.00 0.00 0.00 44 1007.5
20260904012004 68 163 1.0 2.0 0.00 0.00 0.00 43 1007.5
20260904011901 68 167 1.0 4.0 0.00 0.00 0.00 42 1007.5
20260904011800 68 169 1.0 4.0 0.00 0.00 0.00 42 1007.5
20260904011731 68 186 1.0 4.0 0.00 0.00 0.00 42 1007.5
20260904011706 68 184 0.0 4.0 0.00 0.00 0.00 43 1007.5
20260904011649 68 185 0.0 4.0 0.00 0.00 0.00 44 1007.6
20260904011615 68 221 0.0 4.0 0.00 0.00 0.00 43 1007.6
20260904011554 68 221 1.0 4.0 0.00 0.00 0.00 44 1007.6
20260904010959 68 187 1.0 4.0 0.00 0.00 0.00 42 1007.6
20260904010856 68 180 1.0 3.0 0.00 0.00 0.00 42 1007.6
20260904010754 68 178 1.0 3.0 0.00 0.00 0.00 42 1007.6
20260904010654 68 171 1.0 3.0 0.00 0.00 0.00 43 1007.5
20260904010550 68 165 0.0 3.0 0.00 0.00 0.00 43 1007.5
20260904010455 68 181 0.0 3.0 0.00 0.00 0.00 43 1007.5
20260904010341 68 182 0.0 3.0 0.00 0.00 0.00 43 1007.6
20260904010241 68 182 1.0 3.0 0.00 0.00 0.00 42 1007.6
20260904010140 68 182 1.0 3.0 0.00 0.00 0.00 42 1007.5
20260904010041 68 186 1.0 3.0 0.00 0.00 0.00 42 1007.6
20260904005948 68 177 1.0 3.0 0.00 0.00 0.00 41 1007.5
20260904005835 68 131 1.0 4.0 0.00 0.00 0.00 42 1007.5
20260904005730 68 129 1.0 4.0 0.00 0.00 0.00 42 1007.5
20260904005630 68 128 1.0 4.0 0.00 0.00 0.00 42 1007.5
20260904005532 69 123 1.0 4.0 0.00 0.00 0.00 41 1007.5
20260904005442 68 100 1.0 4.0 0.00 0.00 0.00 41 1007.5
20260904005418 69 138 2.0 4.0 0.00 0.00 0.00 41 1007.5
20260904005359 69 138 2.0 4.0 0.00 0.00 0.00 40 1007.5
20260904005029 69 133 3.0 4.0 0.00 0.00 0.00 41 1007.5
20260904004932 69 138 2.0 4.0 0.00 0.00 0.00 41 1007.5
20260904004850 69 146 1.0 4.0 0.00 0.00 0.00 42 1007.5
20260904004828 69 132 0.0 2.0 0.00 0.00 0.00 42 1007.5
20260904004807 69 172 0.0 2.0 0.00 0.00 0.00 42 1007.5
20260904004746 69 171 1.0 2.0 0.00 0.00 0.00 42 1007.5
20260904004724 69 171 0.0 3.0 0.00 0.00 0.00 41 1007.5
20260904004650 69 132 0.0 3.0 0.00 0.00 0.00 41 1007.5
20260904004359 69 130 0.0 3.0 0.00 0.00 0.00 42 1007.6
20260904004109 69 149 1.0 3.0 0.00 0.00 0.00 41 1007.6
20260904004036 69 149 0.0 3.0 0.00 0.00 0.00 41 1007.6
20260904004015 69 155 0.0 3.0 0.00 0.00 0.00 42 1007.6
20260904003954 69 198 1.0 3.0 0.00 0.00 0.00 42 1007.6
20260904003706 69 198 1.0 3.0 0.00 0.00 0.00 41 1007.6
20260904003631 69 166 0.0 3.0 0.00 0.00 0.00 42 1007.6
20260904003611 69 261 0.0 3.0 0.00 0.00 0.00 41 1007.6
20260904003548 69 281 1.0 4.0 0.00 0.00 0.00 41 1007.6
20260904003528 69 292 2.0 4.0 0.00 0.00 0.00 40 1007.6
20260904003224 69 240 1.0 4.0 0.00 0.00 0.00 40 1007.6
20260904003203 69 252 1.0 4.0 0.00 0.00 0.00 41 1007.6
20260904002912 69 210 1.0 4.0 0.00 0.00 0.00 40 1007.6
20260904002840 69 177 1.0 4.0 0.00 0.00 0.00 41 1007.7
20260904002552 69 241 2.0 3.0 0.00 0.00 0.00 41 1007.7
20260904002528 69 207 2.0 3.0 0.00 0.00 0.00 39 1007.8
20260904002508 69 257 1.0 3.0 0.00 0.00 0.00 40 1007.8
20260904002435 69 268 1.0 3.0 0.00 0.00 0.00 40 1007.8
20260904002143 69 267 1.0 3.0 0.00 0.00 0.00 40 1007.7
20260904001300 69 212 1.0 6.0 0.00 0.00 0.00 40 1007.8
20260904001204 69 183 1.0 6.0 0.00 0.00 0.00 39 1007.8
20260904001123 69 171 1.0 6.0 0.00 0.00 0.00 41 1007.8
20260904001103 69 266 1.0 6.0 0.00 0.00 0.00 41 1007.8
20260904001028 69 154 1.0 6.0 0.00 0.00 0.00 40 1007.8
20260904000656 69 194 2.0 6.0 0.00 0.00 0.00 40 1007.9
20260904000556 69 218 1.0 6.0 0.00 0.00 0.00 40 1007.9
20260904000455 69 237 1.0 6.0 0.00 0.00 0.00 40 1007.9
20260904000357 69 263 1.0 3.0 0.00 0.00 0.00 39 1007.9
20260904000337 69 263 0.0 3.0 0.00 0.00 0.00 39 1007.9
20260904000313 69 225 0.0 4.0 0.00 0.00 0.00 40 1007.9
20260904000256 69 225 0.0 4.0 0.00 0.00 0.00 40 1007.9
20260904000235 69 154 0.0 7.0 0.00 0.00 0.00 40 1007.9
20260904000157 69 154 0.0 7.0 0.00 0.00 0.00 40 1007.9
20260903235911 69 154 1.0 7.0 0.00 0.00 0.00 39 1007.8
20260903235621 69 171 1.0 7.0 0.00 0.00 0.00 40 1007.9
20260903235237 69 209 2.0 7.0 0.00 0.00 0.00 40 1007.9
20260903235136 69 256 4.0 7.0 0.00 0.00 0.00 41 1007.9
20260903235035 69 244 4.0 7.0 0.00 0.00 0.00 40 1007.9
20260903234935 69 261 2.0 6.0 0.00 0.00 0.00 39 1007.9
20260903234834 69 248 2.0 6.0 0.00 0.00 0.00 39 1007.9
20260903234734 69 269 1.0 6.0 0.00 0.00 0.00 40 1007.9
20260903234634 69 157 0.0 6.0 0.00 0.00 0.00 40 1007.9
20260903234534 69 276 0.0 6.0 0.00 0.00 0.00 40 1007.9
20260903234433 69 276 0.0 6.0 0.00 0.00 0.00 41 1007.9
20260903234331 69 269 0.0 6.0 0.00 0.00 0.00 40 1007.9
20260903234307 69 273 1.0 6.0 0.00 0.00 0.00 40 1007.9
20260903234245 69 188 2.0 6.0 0.00 0.00 0.00 39 1007.9
20260903234225 70 267 2.0 6.0 0.00 0.00 0.00 39 1007.9
20260903234204 70 265 1.0 6.0 0.00 0.00 0.00 41 1007.9
20260903234126 70 157 1.0 5.0 0.00 0.00 0.00 41 1008.0
20260903233528 70 215 2.0 6.0 0.00 0.00 0.00 40 1008.0
20260903233426 70 259 1.0 6.0 0.00 0.00 0.00 40 1008.0
20260903233325 69 231 2.0 6.0 0.00 0.00 0.00 41 1008.0
20260903233226 69 208 2.0 6.0 0.00 0.00 0.00 41 1008.0
20260903233126 69 169 2.0 6.0 0.00 0.00 0.00 41 1008.0
20260903233025 69 145 2.0 6.0 0.00 0.00 0.00 40 1008.0
20260903232924 70 184 3.0 6.0 0.00 0.00 0.00 40 1008.0
20260903232824 70 170 3.0 6.0 0.00 0.00 0.00 40 1007.9
20260903232800 70 159 3.0 6.0 0.00 0.00 0.00 40 1008.0
20260903232737 70 169 2.0 5.0 0.00 0.00 0.00 40 1007.9
20260903232715 70 185 2.0 5.0 0.00 0.00 0.00 41 1008.0
20260903232655 70 274 3.0 6.0 0.00 0.00 0.00 41 1007.9
20260903232349 70 163 2.0 6.0 0.00 0.00 0.00 41 1007.9
20260903232031 70 213 3.0 6.0 0.00 0.00 0.00 40 1007.9
20260903232008 70 165 2.0 6.0 0.00 0.00 0.00 40 1007.9
20260903231932 70 155 2.0 6.0 0.00 0.00 0.00 40 1007.9
20260903231911 70 155 3.0 6.0 0.00 0.00 0.00 40 1008.0
20260903231620 70 163 3.0 6.0 0.00 0.00 0.00 40 1008.0
20260903231600 70 161 2.0 5.0 0.00 0.00 0.00 40 1008.0
20260903231216 70 173 3.0 5.0 0.00 0.00 0.00 40 1008.1
20260903231108 70 169 2.0 5.0 0.00 0.00 0.00 40 1008.0
20260903231008 70 207 2.0 5.0 0.00 0.00 0.00 41 1008.1
20260903230907 70 144 3.0 5.0 0.00 0.00 0.00 40 1008.1
20260903230807 70 180 2.0 5.0 0.00 0.00 0.00 40 1008.1
20260903230706 70 129 1.0 5.0 0.00 0.00 0.00 41 1008.1
20260903230606 70 157 2.0 7.0 0.00 0.00 0.00 40 1008.2
20260903230505 70 173 2.0 7.0 0.00 0.00 0.00 41 1008.1
20260903230407 70 141 2.0 7.0 0.00 0.00 0.00 40 1008.2
20260903230303 70 198 2.0 10.0 0.00 0.00 0.00 40 1008.2
20260903230203 70 242 2.0 10.0 0.00 0.00 0.00 41 1008.2
20260903230002 70 168 2.0 10.0 0.00 0.00 0.00 41 1008.2
20260903225903 70 180 2.0 10.0 0.00 0.00 0.00 40 1008.2
20260903225827 70 182 2.0 10.0 0.00 0.00 0.00 40 1008.2
20260903225805 70 183 2.0 10.0 0.00 0.00 0.00 40 1008.2
20260903225743 70 249 3.0 10.0 0.00 0.00 0.00 39 1008.2
20260903225721 70 189 2.0 10.0 0.00 0.00 0.00 40 1008.2
20260903225701 70 241 2.0 6.0 0.00 0.00 0.00 40 1008.2
20260903225627 70 174 2.0 6.0 0.00 0.00 0.00 40 1008.2
20260903225607 70 261 2.0 7.0 0.00 0.00 0.00 40 1008.2
20260903225316 70 313 1.0 7.0 0.00 0.00 0.00 39 1008.2
20260903225258 70 164 2.0 7.0 0.00 0.00 0.00 39 1008.2
20260903225222 70 199 3.0 9.0 0.00 0.00 0.00 39 1008.2
20260903224704 70 148 3.0 9.0 0.00 0.00 0.00 39 1008.2
20260903224358 70 240 4.0 9.0 0.00 0.00 0.00 38 1008.3
20260903224336 70 144 4.0 9.0 0.00 0.00 0.00 39 1008.3
20260903224314 71 148 3.0 9.0 0.00 0.00 0.00 38 1008.3
20260903224023 71 256 2.0 9.0 0.00 0.00 0.00 39 1008.3
20260903223941 70 247 2.0 6.0 0.00 0.00 0.00 40 1008.3
20260903223920 70 156 2.0 6.0 0.00 0.00 0.00 39 1008.3
20260903223857 70 258 2.0 6.0 0.00 0.00 0.00 39 1008.3
20260903223301 70 38 3.0 10.0 0.00 0.00 0.00 41 1008.5
20260903223239 70 180 3.0 10.0 0.00 0.00 0.00 40 1008.6
20260903223216 70 282 2.0 10.0 0.00 0.00 0.00 40 1008.6
20260903223155 70 218 1.0 10.0 0.00 0.00 0.00 40 1008.6
20260903223134 70 211 2.0 10.0 0.00 0.00 0.00 41 1008.6
20260903222829 69 240 5.0 10.0 0.00 0.00 0.00 40 1008.6
20260903222524 69 166 7.0 10.0 0.00 0.00 0.00 38 1008.6
20260903222504 69 198 6.0 10.0 0.00 0.00 0.00 39 1008.7
20260903222432 70 165 6.0 10.0 0.00 0.00 0.00 39 1008.7
20260903222103 70 174 5.0 8.0 0.00 0.00 0.00 40 1008.8
20260903222031 70 219 4.0 8.0 0.00 0.00 0.00 39 1008.7
20260903222008 70 190 3.0 8.0 0.00 0.00 0.00 39 1008.7
20260903221933 70 154 3.0 7.0 0.00 0.00 0.00 40 1008.8
20260903221601 70 169 3.0 5.0 0.00 0.00 0.00 40 1008.7
20260903221500 70 198 2.0 5.0 0.00 0.00 0.00 41 1008.8
20260903221401 70 145 2.0 6.0 0.00 0.00 0.00 40 1008.8
20260903221300 70 194 2.0 8.0 0.00 0.00 0.00 41 1008.7
20260903221202 70 262 3.0 8.0 0.00 0.00 0.00 40 1008.8
20260903221101 70 163 2.0 8.0 0.00 0.00 0.00 40 1008.8
20260903221001 70 203 2.0 8.0 0.00 0.00 0.00 40 1008.8
20260903220901 70 140 2.0 8.0 0.00 0.00 0.00 40 1008.8
20260903220800 70 189 3.0 8.0 0.00 0.00 0.00 40 1008.8
20260903220714 70 214 3.0 10.0 0.00 0.00 0.00 40 1008.8
20260903220652 70 193 4.0 10.0 0.00 0.00 0.00 40 1008.8
20260903220632 70 165 4.0 10.0 0.00 0.00 0.00 40 1008.8
20260903220302 70 192 2.0 10.0 0.00 0.00 0.00 39 1008.8
20260903220201 70 188 3.0 10.0 0.00 0.00 0.00 39 1008.8
20260903220128 70 202 3.0 10.0 0.00 0.00 0.00 40 1008.8
20260903220106 70 173 4.0 10.0 0.00 0.00 0.00 39 1008.7
20260903220045 70 186 4.0 10.0 0.00 0.00 0.00 40 1008.7
20260903215701 70 235 1.0 6.0 0.00 0.00 0.00 39 1008.8
20260903215601 70 288 2.0 6.0 0.00 0.00 0.00 39 1008.8
20260903215510 70 208 2.0 6.0 0.00 0.00 0.00 40 1008.8
20260903215451 70 217 2.0 6.0 0.00 0.00 0.00 40 1008.8
20260903215415 70 199 2.0 6.0 0.00 0.00 0.00 39 1008.8
20260903215354 70 161 2.0 6.0 0.00 0.00 0.00 40 1008.9
20260903215334 70 228 1.0 6.0 0.00 0.00 0.00 40 1008.9
20260903215043 70 258 2.0 6.0 0.00 0.00 0.00 39 1008.8
20260903214703 70 213 2.0 6.0 0.00 0.00 0.00 39 1008.9
20260903214630 70 179 1.0 5.0 0.00 0.00 0.00 40 1008.9
20260903214605 70 203 2.0 5.0 0.00 0.00 0.00 39 1008.9
20260903214545 70 138 2.0 5.0 0.00 0.00 0.00 39 1008.9
20260903214201 70 184 2.0 7.0 0.00 0.00 0.00 40 1008.9
20260903214101 70 228 2.0 7.0 0.00 0.00 0.00 40 1009.0
20260903214000 70 205 2.0 7.0 0.00 0.00 0.00 40 1009.0
20260903213901 70 232 2.0 7.0 0.00 0.00 0.00 41 1009.0
20260903213801 70 188 2.0 7.0 0.00 0.00 0.00 41 1009.0
20260903213702 70 206 1.0 7.0 0.00 0.00 0.00 41 1008.9
20260903213601 70 250 1.0 7.0 0.00 0.00 0.00 40 1009.0
20260903213502 70 257 3.0 8.0 0.00 0.00 0.00 40 1008.9
20260903213401 70 236 3.0 8.0 0.00 0.00 0.00 42 1009.0
20260903213259 70 181 2.0 8.0 0.00 0.00 0.00 40 1009.0
20260903213158 70 188 2.0 8.0 0.00 0.00 0.00 41 1009.0
20260903213056 69 182 2.0 8.0 0.00 0.00 0.00 41 1009.0
20260903212957 69 172 1.0 8.0 0.00 0.00 0.00 41 1009.1
20260903212857 69 258 2.0 8.0 0.00 0.00 0.00 40 1009.1
20260903212817 69 161 2.0 8.0 0.00 0.00 0.00 40 1009.1
20260903212752 69 194 2.0 8.0 0.00 0.00 0.00 40 1009.1
20260903212733 69 173 3.0 8.0 0.00 0.00 0.00 42 1009.2
20260903212444 69 265 2.0 8.0 0.00 0.00 0.00 40 1009.1
20260903212408 69 232 3.0 8.0 0.00 0.00 0.00 40 1009.1
20260903212347 69 257 2.0 8.0 0.00 0.00 0.00 40 1009.1
20260903212326 69 259 1.0 7.0 0.00 0.00 0.00 41 1009.1
20260903212034 69 195 2.0 7.0 0.00 0.00 0.00 41 1009.2
20260903211648 69 206 3.0 7.0 0.00 0.00 0.00 41 1009.2
20260903211548 69 246 2.0 7.0 0.00 0.00 0.00 41 1009.2
20260903211512 69 173 3.0 7.0 0.00 0.00 0.00 41 1009.2
20260903211450 69 203 4.0 7.0 0.00 0.00 0.00 40 1009.2
20260903211415 69 169 2.0 7.0 0.00 0.00 0.00 40 1009.3
20260903211045 69 239 2.0 7.0 0.00 0.00 0.00 42 1009.2
20260903210945 69 220 3.0 10.0 0.00 0.00 0.00 42 1009.3
20260903210844 69 190 3.0 10.0 0.00 0.00 0.00 42 1009.3
20260903210743 69 165 2.0 10.0 0.00 0.00 0.00 42 1009.3
20260903210644 69 155 2.0 10.0 0.00 0.00 0.00 42 1009.3
20260903210543 69 111 2.0 10.0 0.00 0.00 0.00 43 1009.4
20260903210442 69 225 3.0 10.0 0.00 0.00 0.00 42 1009.3
20260903210342 69 174 3.0 10.0 0.00 0.00 0.00 43 1009.4
20260903210256 69 148 4.0 10.0 0.00 0.00 0.00 42 1009.3
20260903210231 69 171 4.0 10.0 0.00 0.00 0.00 43 1009.3
20260903210210 69 179 3.0 10.0 0.00 0.00 0.00 43 1009.3
20260903205841 69 191 3.0 8.0 0.00 0.00 0.00 43 1009.3
20260903205740 69 200 2.0 8.0 0.00 0.00 0.00 44 1009.2
20260903205638 69 225 2.0 8.0 0.00 0.00 0.00 44 1009.2
20260903205537 69 196 2.0 8.0 0.00 0.00 0.00 43 1009.2
20260903205437 69 252 2.0 8.0 0.00 0.00 0.00 44 1009.3
20260903205337 69 206 2.0 9.0 0.00 0.00 0.00 43 1009.3
20260903205235 69 227 3.0 11.0 0.00 0.00 0.00 43 1009.3
20260903205134 69 155 3.0 11.0 0.00 0.00 0.00 43 1009.3
20260903205029 69 254 3.0 11.0 0.00 0.00 0.00 43 1009.3
20260903204929 69 276 3.0 11.0 0.00 0.00 0.00 43 1009.4
20260903204830 69 166 3.0 11.0 0.00 0.00 0.00 43 1009.4
20260903204743 69 211 3.0 11.0 0.00 0.00 0.00 43 1009.4
20260903204721 69 241 4.0 11.0 0.00 0.00 0.00 43 1009.3
20260903204659 69 219 5.0 11.0 0.00 0.00 0.00 42 1009.3
20260903204637 69 186 5.0 11.0 0.00 0.00 0.00 42 1009.3
20260903204618 69 177 6.0 11.0 0.00 0.00 0.00 41 1009.3
20260903204544 69 169 5.0 8.0 0.00 0.00 0.00 42 1009.3
20260903204522 69 184 4.0 8.0 0.00 0.00 0.00 42 1009.3
20260903204459 69 157 2.0 8.0 0.00 0.00 0.00 42 1009.2
20260903204207 69 135 2.0 8.0 0.00 0.00 0.00 43 1009.2
20260903204133 69 150 4.0 8.0 0.00 0.00 0.00 42 1009.2
20260903203612 69 245 2.0 8.0 0.00 0.00 0.00 41 1009.3
20260903203304 69 173 3.0 8.0 0.00 0.00 0.00 42 1009.3
20260903203242 69 255 2.0 7.0 0.00 0.00 0.00 42 1009.3
20260903203221 69 161 2.0 6.0 0.00 0.00 0.00 42 1009.3
20260903203200 69 205 3.0 7.0 0.00 0.00 0.00 41 1009.3
20260903203133 69 196 3.0 7.0 0.00 0.00 0.00 41 1009.3
20260903203100 69 197 2.0 7.0 0.00 0.00 0.00 41 1009.3
20260903202537 69 194 2.0 7.0 0.00 0.00 0.00 42 1009.3
20260903202208 69 151 4.0 12.0 0.00 0.00 0.00 41 1009.3
20260903202116 69 179 4.0 12.0 0.00 0.00 0.00 42 1009.3
20260903202052 69 149 4.0 12.0 0.00 0.00 0.00 42 1009.4
20260903202030 69 168 4.0 12.0 0.00 0.00 0.00 43 1009.4
20260903201957 69 148 4.0 12.0 0.00 0.00 0.00 42 1009.4
20260903201925 69 158 4.0 12.0 0.00 0.00 0.00 42 1009.5
20260903201900 69 199 4.0 12.0 0.00 0.00 0.00 43 1009.5
20260903201301 69 233 3.0 8.0 0.00 0.00 0.00 43 1009.5
20260903201203 69 188 3.0 8.0 0.00 0.00 0.00 42 1009.5
20260903201101 69 169 4.0 8.0 0.00 0.00 0.00 43 1009.6
20260903201001 69 180 3.0 10.0 0.00 0.00 0.00 43 1009.5
20260903200901 69 165 1.0 10.0 0.00 0.00 0.00 43 1009.5
20260903200802 69 156 2.0 10.0 0.00 0.00 0.00 44 1009.5
20260903200716 68 250 2.0 10.0 0.00 0.00 0.00 43 1009.6
20260903200652 68 164 2.0 10.0 0.00 0.00 0.00 44 1009.6
20260903200632 68 288 4.0 10.0 0.00 0.00 0.00 44 1009.6
20260903200321 68 258 5.0 10.0 0.00 0.00 0.00 42 1009.6
20260903200242 68 250 3.0 10.0 0.00 0.00 0.00 43 1009.6
20260903200218 68 208 4.0 10.0 0.00 0.00 0.00 45 1009.6
20260903200158 68 199 4.0 9.0 0.00 0.00 0.00 43 1009.7
20260903200138 68 192 2.0 9.0 0.00 0.00 0.00 43 1009.6
20260903200113 68 162 1.0 10.0 0.00 0.00 0.00 45 1009.6
20260903195456 68 139 2.0 10.0 0.00 0.00 0.00 44 1009.7
20260903195357 68 200 3.0 10.0 0.00 0.00 0.00 44 1009.7
20260903195256 68 189 4.0 10.0 0.00 0.00 0.00 44 1009.6
20260903195207 68 190 5.0 10.0 0.00 0.00 0.00 43 1009.7
20260903195145 68 197 5.0 10.0 0.00 0.00 0.00 42 1009.7
20260903195123 68 180 5.0 10.0 0.00 0.00 0.00 43 1009.7
20260903194817 68 180 2.0 7.0 0.00 0.00 0.00 45 1009.7
20260903194743 68 205 2.0 7.0 0.00 0.00 0.00 46 1009.7
20260903194720 68 244 2.0 7.0 0.00 0.00 0.00 45 1009.7
20260903194350 68 134 2.0 7.0 0.00 0.00 0.00 44 1009.7
20260903194250 68 163 3.0 7.0 0.00 0.00 0.00 45 1009.7
20260903194149 68 196 4.0 7.0 0.00 0.00 0.00 44 1009.7
20260903194046 68 190 4.0 7.0 0.00 0.00 0.00 44 1009.8
20260903194022 68 82 3.0 7.0 0.00 0.00 0.00 45 1009.8
20260903194000 68 184 3.0 7.0 0.00 0.00 0.00 45 1009.8
20260903193937 68 130 3.0 7.0 0.00 0.00 0.00 45 1009.8
20260903193903 68 167 3.0 7.0 0.00 0.00 0.00 45 1009.8
20260903193611 68 170 2.0 7.0 0.00 0.00 0.00 46 1009.9
20260903193238 68 219 3.0 7.0 0.00 0.00 0.00 47 1009.9
20260903193138 68 140 3.0 8.0 0.00 0.00 0.00 47 1009.9
20260903193106 68 224 4.0 8.0 0.00 0.00 0.00 47 1009.9
20260903193042 68 189 3.0 8.0 0.00 0.00 0.00 47 1009.9
20260903193016 68 173 3.0 8.0 0.00 0.00 0.00 46 1009.9
20260903192954 67 164 3.0 8.0 0.00 0.00 0.00 48 1009.9
20260903192650 67 147 4.0 10.0 0.00 0.00 0.00 46 1009.9
20260903192628 67 140 4.0 10.0 0.00 0.00 0.00 48 1009.9
20260903192606 67 142 5.0 10.0 0.00 0.00 0.00 48 1009.9
20260903192545 67 183 4.0 10.0 0.00 0.00 0.00 48 1009.9
20260903192510 67 173 3.0 10.0 0.00 0.00 0.00 49 1010.1
20260903192218 67 163 3.0 10.0 0.00 0.00 0.00 48 1009.9
20260903192158 67 113 5.0 10.0 0.00 0.00 0.00 48 1010.1
20260903192134 67 134 5.0 10.0 0.00 0.00 0.00 49 1009.9
20260903192100 67 171 4.0 10.0 0.00 0.00 0.00 48 1010.1
20260903192036 67 175 2.0 10.0 0.00 0.00 0.00 50 1010.1
20260903192015 67 181 2.0 10.0 0.00 0.00 0.00 50 1010.1
20260903191955 68 221 3.0 10.0 0.00 0.00 0.00 50 1010.1
20260903191935 68 198 5.0 10.0 0.00 0.00 0.00 49 1010.2
20260903191631 68 176 3.0 10.0 0.00 0.00 0.00 49 1010.2
20260903191608 68 146 3.0 10.0 0.00 0.00 0.00 50 1010.2
20260903191548 68 75 5.0 10.0 0.00 0.00 0.00 50 1010.2
20260903190745 67 215 2.0 7.0 0.00 0.00 0.00 51 1010.3
20260903190721 67 281 3.0 7.0 0.00 0.00 0.00 51 1010.3
20260903190656 67 160 2.0 7.0 0.00 0.00 0.00 51 1010.3
20260903190621 67 89 2.0 7.0 0.00 0.00 0.00 51 1010.3
20260903190600 67 228 2.0 7.0 0.00 0.00 0.00 52 1010.3
20260903190539 67 270 2.0 7.0 0.00 0.00 0.00 51 1010.3
20260903190247 67 184 2.0 7.0 0.00 0.00 0.00 52 1010.4
20260903190210 67 192 4.0 7.0 0.00 0.00 0.00 52 1010.4
20260903185922 67 269 3.0 7.0 0.00 0.00 0.00 51 1010.4
20260903185631 67 203 2.0 7.0 0.00 0.00 0.00 51 1010.4
20260903185328 67 144 2.0 8.0 0.00 0.00 0.00 50 1010.4
20260903185308 67 194 2.0 8.0 0.00 0.00 0.00 52 1010.4
20260903185246 67 209 3.0 8.0 0.00 0.00 0.00 51 1010.4
20260903184402 67 180 5.0 8.0 0.00 0.00 0.00 49 1010.5
20260903184301 67 136 5.0 8.0 0.00 0.00 0.00 51 1010.5
20260903184202 67 173 4.0 8.0 0.00 0.00 0.00 51 1010.5
20260903184105 67 160 4.0 7.0 0.00 0.00 0.00 51 1010.5
20260903184016 67 153 3.0 8.0 0.00 0.00 0.00 50 1010.5
20260903183953 67 198 2.0 8.0 0.00 0.00 0.00 51 1010.5
20260903183931 67 261 2.0 8.0 0.00 0.00 0.00 49 1010.4
20260903183615 67 162 3.0 9.0 0.00 0.00 0.00 51 1010.4
20260903183553 67 154 4.0 9.0 0.00 0.00 0.00 50 1010.4
20260903183533 67 205 3.0 11.0 0.00 0.00 0.00 49 1010.4
20260903183230 67 245 3.0 11.0 0.00 0.00 0.00 49 1010.4
20260903183154 67 278 3.0 11.0 0.00 0.00 0.00 50 1010.5
20260903183132 67 211 5.0 11.0 0.00 0.00 0.00 50 1010.5
20260903183111 67 194 5.0 11.0 0.00 0.00 0.00 49 1010.5
20260903183049 67 180 3.0 11.0 0.00 0.00 0.00 48 1010.4
20260903183028 67 150 4.0 11.0 0.00 0.00 0.00 49 1010.4
20260903182953 67 158 5.0 11.0 0.00 0.00 0.00 50 1010.4
20260903182432 67 213 4.0 9.0 0.00 0.00 0.00 50 1010.4
20260903182410 67 176 3.0 9.0 0.00 0.00 0.00 49 1010.4
20260903182335 67 164 4.0 9.0 0.00 0.00 0.00 50 1010.5
20260903182045 67 159 5.0 9.0 0.00 0.00 0.00 50 1010.5
20260903182022 67 163 5.0 9.0 0.00 0.00 0.00 50 1010.5
20260903181716 67 146 2.0 9.0 0.00 0.00 0.00 50 1010.5
20260903181653 67 149 2.0 9.0 0.00 0.00 0.00 50 1010.5
20260903181632 67 165 3.0 9.0 0.00 0.00 0.00 51 1010.5
20260903181611 67 153 4.0 9.0 0.00 0.00 0.00 51 1010.5
20260903181551 67 174 4.0 9.0 0.00 0.00 0.00 49 1010.5
20260903181513 67 219 2.0 9.0 0.00 0.00 0.00 50 1010.5
20260903181454 67 128 2.0 9.0 0.00 0.00 0.00 50 1010.4
20260903181434 67 226 2.0 9.0 0.00 0.00 0.00 51 1010.5
20260903181411 67 259 2.0 9.0 0.00 0.00 0.00 51 1010.4
20260903181353 67 193 2.0 9.0 0.00 0.00 0.00 53 1010.5
20260903180551 66 173 4.0 9.0 0.00 0.00 0.00 51 1010.5
20260903180526 66 275 3.0 10.0 0.00 0.00 0.00 51 1010.5
20260903180224 67 228 4.0 10.0 0.00 0.00 0.00 51 1010.5
20260903175932 67 163 2.0 10.0 0.00 0.00 0.00 51 1010.6
20260903175603 66 219 3.0 10.0 0.00 0.00 0.00 52 1010.5
20260903175539 66 230 5.0 10.0 0.00 0.00 0.00 53 1010.5
20260903175518 66 272 5.0 10.0 0.00 0.00 0.00 52 1010.4
20260903175457 66 61 3.0 10.0 0.00 0.00 0.00 51 1010.5
20260903175152 66 155 5.0 10.0 0.00 0.00 0.00 52 1010.4
20260903175131 66 157 5.0 10.0 0.00 0.00 0.00 51 1010.5
20260903174801 66 165 3.0 10.0 0.00 0.00 0.00 52 1010.4
20260903174701 66 184 3.0 10.0 0.00 0.00 0.00 52 1010.4
20260903174602 66 196 2.0 10.0 0.00 0.00 0.00 52 1010.4
20260903174506 66 186 2.0 10.0 0.00 0.00 0.00 53 1010.4
20260903174444 66 236 4.0 10.0 0.00 0.00 0.00 52 1010.4
20260903174424 66 188 7.0 10.0 0.00 0.00 0.00 52 1010.4
20260903174402 66 190 5.0 10.0 0.00 0.00 0.00 51 1010.4
20260903174058 66 135 5.0 10.0 0.00 0.00 0.00 52 1010.4
20260903174036 66 155 5.0 10.0 0.00 0.00 0.00 53 1010.4
20260903173700 66 165 3.0 8.0 0.00 0.00 0.00 52 1010.4
20260903173612 66 188 3.0 9.0 0.00 0.00 0.00 51 1010.4
20260903173549 66 131 3.0 9.0 0.00 0.00 0.00 52 1010.4
20260903173528 66 200 4.0 9.0 0.00 0.00 0.00 51 1010.4
20260903173157 66 205 3.0 9.0 0.00 0.00 0.00 51 1010.5
20260903173057 66 182 3.0 9.0 0.00 0.00 0.00 53 1010.4
20260903172956 66 185 4.0 9.0 0.00 0.00 0.00 52 1010.4
20260903172857 66 285 4.0 9.0 0.00 0.00 0.00 51 1010.4
20260903172757 66 167 4.0 11.0 0.00 0.00 0.00 52 1010.4
20260903172657 66 173 4.0 11.0 0.00 0.00 0.00 51 1010.4
20260903172556 65 172 4.0 11.0 0.00 0.00 0.00 51 1010.4
20260903172455 65 238 4.0 11.0 0.00 0.00 0.00 52 1010.5
20260903172355 65 267 3.0 11.0 0.00 0.00 0.00 52 1010.4
20260903172253 65 169 4.0 11.0 0.00 0.00 0.00 52 1010.4
20260903172151 65 192 5.0 11.0 0.00 0.00 0.00 52 1010.5
20260903172052 65 173 6.0 12.0 0.00 0.00 0.00 52 1010.5
20260903172030 65 154 7.0 12.0 0.00 0.00 0.00 51 1010.5
20260903172007 65 180 6.0 12.0 0.00 0.00 0.00 52 1010.5
20260903171945 65 146 5.0 12.0 0.00 0.00 0.00 51 1010.5
20260903171639 65 186 5.0 12.0 0.00 0.00 0.00 51 1010.4
20260903171617 65 196 4.0 12.0 0.00 0.00 0.00 51 1010.4
20260903171248 65 188 6.0 12.0 0.00 0.00 0.00 54 1010.4
20260903171146 65 213 5.0 12.0 0.00 0.00 0.00 53 1010.4
20260903171044 65 180 4.0 11.0 0.00 0.00 0.00 54 1010.4
20260903171020 65 168 4.0 11.0 0.00 0.00 0.00 54 1010.4
20260903170957 65 227 5.0 11.0 0.00 0.00 0.00 54 1010.5
20260903170935 65 195 4.0 11.0 0.00 0.00 0.00 54 1010.5
20260903170914 64 194 3.0 10.0 0.00 0.00 0.00 54 1010.5
20260903170610 64 248 6.0 10.0 0.00 0.00 0.00 55 1010.4
20260903170240 64 189 4.0 13.0 0.00 0.00 0.00 55 1010.4
20260903170139 64 146 2.0 13.0 0.00 0.00 0.00 57 1010.5
20260903170056 64 192 2.0 13.0 0.00 0.00 0.00 57 1010.4
20260903170034 64 159 4.0 13.0 0.00 0.00 0.00 57 1010.4
20260903170009 64 286 4.0 13.0 0.00 0.00 0.00 56 1010.4
20260903165639 63 261 3.0 13.0 0.00 0.00 0.00 57 1010.4
20260903165536 63 212 5.0 13.0 0.00 0.00 0.00 57 1010.3
20260903165437 63 174 5.0 13.0 0.00 0.00 0.00 58 1010.3
20260903165402 63 262 3.0 10.0 0.00 0.00 0.00 59 1010.3
20260903165337 63 218 3.0 10.0 0.00 0.00 0.00 59 1010.3
20260903165317 63 196 4.0 10.0 0.00 0.00 0.00 60 1010.3
20260903165010 63 211 2.0 10.0 0.00 0.00 0.00 59 1010.3
20260903164947 63 196 1.0 10.0 0.00 0.00 0.00 60 1010.3
20260903164926 63 159 2.0 10.0 0.00 0.00 0.00 60 1010.3
20260903164622 62 258 3.0 10.0 0.00 0.00 0.00 59 1010.4
20260903164601 62 169 5.0 10.0 0.00 0.00 0.00 60 1010.4
20260903164540 62 161 5.0 10.0 0.00 0.00 0.00 59 1010.4
20260903164248 62 134 3.0 10.0 0.00 0.00 0.00 60 1010.5
20260903164213 62 270 3.0 10.0 0.00 0.00 0.00 59 1010.5
20260903164152 62 239 3.0 10.0 0.00 0.00 0.00 60 1010.5
20260903164129 62 173 3.0 10.0 0.00 0.00 0.00 59 1010.4
20260903163528 62 180 4.0 10.0 0.00 0.00 0.00 59 1010.4
20260903163428 62 188 5.0 10.0 0.00 0.00 0.00 61 1010.4
20260903163327 62 241 4.0 10.0 0.00 0.00 0.00 59 1010.4
20260903163227 62 161 3.0 10.0 0.00 0.00 0.00 60 1010.4
20260903163126 62 231 5.0 10.0 0.00 0.00 0.00 61 1010.4
20260903163027 62 200 5.0 10.0 0.00 0.00 0.00 60 1010.5
20260903162938 62 157 2.0 11.0 0.00 0.00 0.00 60 1010.5
20260903162913 62 233 3.0 11.0 0.00 0.00 0.00 61 1010.4
20260903162853 62 311 3.0 11.0 0.00 0.00 0.00 60 1010.4
20260903162523 62 276 4.0 11.0 0.00 0.00 0.00 60 1010.4
20260903162422 62 273 3.0 11.0 0.00 0.00 0.00 61 1010.3
20260903162320 62 238 3.0 11.0 0.00 0.00 0.00 60 1010.4
20260903162221 62 175 4.0 11.0 0.00 0.00 0.00 59 1010.4
20260903162120 62 306 3.0 11.0 0.00 0.00 0.00 60 1010.5
20260903162020 62 269 2.0 13.0 0.00 0.00 0.00 61 1010.4
20260903161919 62 255 3.0 13.0 0.00 0.00 0.00 60 1010.4
20260903161818 62 238 2.0 13.0 0.00 0.00 0.00 60 1010.4
20260903161744 62 286 2.0 13.0 0.00 0.00 0.00 60 1010.4
20260903161720 62 242 3.0 13.0 0.00 0.00 0.00 60 1010.5
20260903161646 62 227 3.0 13.0 0.00 0.00 0.00 59 1010.5
20260903161315 62 184 2.0 13.0 0.00 0.00 0.00 62 1010.6
20260903161215 62 232 5.0 13.0 0.00 0.00 0.00 60 1010.5
20260903161114 62 189 4.0 18.0 0.00 0.00 0.00 59 1010.4
20260903161013 62 183 3.0 18.0 0.00 0.00 0.00 61 1010.5
20260903160913 62 172 2.0 18.0 0.00 0.00 0.00 60 1010.5
20260903160813 62 219 3.0 18.0 0.00 0.00 0.00 60 1010.4
20260903160739 62 192 4.0 18.0 0.00 0.00 0.00 60 1010.4
20260903160716 62 193 4.0 18.0 0.00 0.00 0.00 59 1010.3
20260903160642 62 274 4.0 18.0 0.00 0.00 0.00 59 1010.3
20260903160309 62 196 5.0 18.0 0.00 0.00 0.00 59 1010.3
20260903160210 62 249 4.0 18.0 0.00 0.00 0.00 60 1010.2
20260903160148 62 250 4.0 9.0 0.00 0.00 0.00 59 1010.3
20260903160111 62 236 4.0 9.0 0.00 0.00 0.00 59 1010.3
20260903160051 62 287 3.0 9.0 0.00 0.00 0.00 59 1010.2
20260903155706 62 205 3.0 9.0 0.00 0.00 0.00 60 1010.2
20260903155605 62 246 4.0 9.0 0.00 0.00 0.00 59 1010.2
20260903155517 62 165 2.0 9.0 0.00 0.00 0.00 59 1010.2
20260903155454 62 200 3.0 9.0 0.00 0.00 0.00 60 1010.2
20260903155433 62 277 3.0 9.0 0.00 0.00 0.00 61 1010.3
20260903155102 62 159 4.0 8.0 0.00 0.00 0.00 61 1010.3
20260903155001 62 209 4.0 8.0 0.00 0.00 0.00 59 1010.2
20260903154902 62 148 4.0 8.0 0.00 0.00 0.00 60 1010.3
20260903154803 62 175 4.0 9.0 0.00 0.00 0.00 59 1010.2
20260903154704 62 197 4.0 11.0 0.00 0.00 0.00 60 1010.3
20260903154602 62 190 3.0 11.0 0.00 0.00 0.00 60 1010.2
20260903154517 62 217 2.0 11.0 0.00 0.00 0.00 61 1010.2
20260903154454 62 178 2.0 11.0 0.00 0.00 0.00 61 1010.3
20260903154433 62 213 2.0 11.0 0.00 0.00 0.00 62 1010.2
20260903154411 61 294 3.0 11.0 0.00 0.00 0.00 62 1010.2
20260903154351 61 209 4.0 11.0 0.00 0.00 0.00 61 1010.2
20260903154314 61 212 5.0 11.0 0.00 0.00 0.00 61 1010.2
20260903154026 61 180 5.0 11.0 0.00 0.00 0.00 61 1010.3
20260903153731 61 208 4.0 10.0 0.00 0.00 0.00 62 1010.2
20260903153711 61 163 4.0 10.0 0.00 0.00 0.00 63 1010.2
20260903153635 61 233 4.0 10.0 0.00 0.00 0.00 62 1010.2
20260903153615 61 184 4.0 10.0 0.00 0.00 0.00 63 1010.1
20260903153552 61 188 5.0 10.0 0.00 0.00 0.00 63 1010.2
20260903153304 61 190 4.0 9.0 0.00 0.00 0.00 63 1010.2
20260903153228 61 245 4.0 9.0 0.00 0.00 0.00 64 1010.2
20260903152935 61 219 3.0 10.0 0.00 0.00 0.00 64 1010.2
20260903152913 61 200 2.0 11.0 0.00 0.00 0.00 64 1010.2
20260903152852 60 267 4.0 11.0 0.00 0.00 0.00 64 1010.2
20260903152817 60 320 4.0 11.0 0.00 0.00 0.00 64 1010.1
20260903152526 60 213 2.0 11.0 0.00 0.00 0.00 66 1010.1
20260903152506 60 202 4.0 11.0 0.00 0.00 0.00 66 1010.1
20260903152201 60 178 5.0 11.0 0.00 0.00 0.00 66 1010.1
20260903151601 60 257 3.0 10.0 0.00 0.00 0.00 67 1010.1
20260903151506 60 168 4.0 10.0 0.00 0.00 0.00 67 1010.1
20260903151401 60 188 4.0 10.0 0.00 0.00 0.00 67 1010.1
20260903151303 60 191 3.0 10.0 0.00 0.00 0.00 67 1009.9
20260903151200 60 196 3.0 10.0 0.00 0.00 0.00 67 1010.1
20260903151101 60 207 4.0 10.0 0.00 0.00 0.00 66 1010.1
20260903151003 60 240 4.0 10.0 0.00 0.00 0.00 66 1010.1
20260903150917 60 176 4.0 10.0 0.00 0.00 0.00 66 1010.1
20260903150852 60 212 4.0 10.0 0.00 0.00 0.00 66 1010.1
20260903150832 60 199 4.0 10.0 0.00 0.00 0.00 67 1010.1
20260903150501 60 215 4.0 10.0 0.00 0.00 0.00 66 1010.1
20260903150400 60 186 3.0 10.0 0.00 0.00 0.00 67 1010.2
20260903150300 60 163 4.0 10.0 0.00 0.00 0.00 67 1010.1
20260903150159 60 180 4.0 10.0 0.00 0.00 0.00 67 1010.1
20260903150058 60 188 4.0 10.0 0.00 0.00 0.00 67 1010.2
20260903150001 60 177 4.0 9.0 0.00 0.00 0.00 66 1010.1
20260903145901 60 209 3.0 9.0 0.00 0.00 0.00 67 1010.2
20260903145759 60 179 4.0 9.0 0.00 0.00 0.00 67 1010.1
20260903145723 59 223 4.0 9.0 0.00 0.00 0.00 67 1010.1
20260903145700 59 259 5.0 9.0 0.00 0.00 0.00 67 1010.1
20260903145640 59 183 5.0 9.0 0.00 0.00 0.00 68 1010.1
20260903145255 59 244 4.0 12.0 0.00 0.00 0.00 68 1010.1
20260903145154 59 299 3.0 12.0 0.00 0.00 0.00 68 1010.2
20260903145053 59 175 4.0 12.0 0.00 0.00 0.00 68 1010.1
20260903144955 59 163 3.0 12.0 0.00 0.00 0.00 69 1010.1
20260903144853 59 222 3.0 12.0 0.00 0.00 0.00 70 1010.2
20260903144751 59 289 4.0 12.0 0.00 0.00 0.00 70 1010.2
20260903144653 58 198 4.0 12.0 0.00 0.00 0.00 70 1010.2
20260903144629 58 155 4.0 12.0 0.00 0.00 0.00 70 1010.2
20260903144607 58 189 6.0 12.0 0.00 0.00 0.00 70 1010.2
20260903144532 58 214 5.0 12.0 0.00 0.00 0.00 71 1010.2
20260903144512 58 232 3.0 12.0 0.00 0.00 0.00 71 1010.1
20260903144448 58 205 3.0 12.0 0.00 0.00 0.00 71 1010.1
20260903144428 58 150 3.0 12.0 0.00 0.00 0.00 72 1010.1
20260903144123 58 223 3.0 12.0 0.00 0.00 0.00 73 1010.2
20260903144059 58 230 3.0 12.0 0.00 0.00 0.00 73 1010.1
20260903144039 58 205 4.0 12.0 0.00 0.00 0.00 73 1010.1
20260903144019 58 187 4.0 12.0 0.00 0.00 0.00 73 1010.2
20260903143957 58 182 3.0 12.0 0.00 0.00 0.00 73 1010.2
20260903143923 57 246 4.0 11.0 0.00 0.00 0.00 74 1010.2
20260903143901 57 207 5.0 11.0 0.00 0.00 0.00 74 1010.2
20260903143839 57 217 5.0 11.0 0.00 0.00 0.00 75 1010.1
20260903143550 57 228 4.0 10.0 0.00 0.00 0.00 75 1010.1
20260903143246 57 250 4.0 10.0 0.00 0.00 0.00 76 1010.2
20260903143226 57 221 3.0 10.0 0.00 0.00 0.00 77 1010.1
20260903143203 57 171 4.0 10.0 0.00 0.00 0.00 78 1010.1
20260903143142 57 277 3.0 10.0 0.00 0.00 0.00 78 1010.2
20260903142611 56 244 0.0 5.0 0.00 0.00 0.00 79 1010.1
20260903142038 56 249 2.0 6.0 0.00 0.00 0.00 80 1010.2
20260903141747 56 198 0.0 7.0 0.00 0.00 0.00 80 1010.2
20260903141411 56 228 2.0 8.0 0.00 0.00 0.00 80 1010.2
20260903141310 56 273 2.0 8.0 0.00 0.00 0.00 80 1010.2
20260903141210 56 255 2.0 8.0 0.00 0.00 0.00 81 1010.2
20260903141109 56 281 2.0 8.0 0.00 0.00 0.00 81 1010.2
20260903141009 56 250 3.0 8.0 0.00 0.00 0.00 81 1010.2
20260903140907 56 230 3.0 8.0 0.00 0.00 0.00 80 1010.2
20260903140808 56 273 3.0 8.0 0.00 0.00 0.00 81 1010.2
20260903140707 56 243 3.0 8.0 0.00 0.00 0.00 81 1010.2
20260903140606 56 246 4.0 8.0 0.00 0.00 0.00 81 1010.1
20260903140506 56 280 1.0 8.0 0.00 0.00 0.00 81 1010.1
20260903140406 56 275 2.0 7.0 0.00 0.00 0.00 81 1010.1
20260903140316 56 240 3.0 7.0 0.00 0.00 0.00 81 1010.1
20260903140251 56 241 2.0 7.0 0.00 0.00 0.00 81 1010.1
20260903140232 56 279 2.0 6.0 0.00 0.00 0.00 82 1010.1
20260903135901 56 273 3.0 6.0 0.00 0.00 0.00 82 1010.1
20260903135802 56 284 2.0 6.0 0.00 0.00 0.00 82 1010.1
20260903135702 55 246 2.0 6.0 0.00 0.00 0.00 82 1010.1
20260903135626 55 207 2.0 5.0 0.00 0.00 0.00 82 1010.1
20260903135604 55 197 1.0 5.0 0.00 0.00 0.00 82 1010.1
20260903135528 55 266 2.0 5.0 0.00 0.00 0.00 82 1010.1
20260903135159 55 212 2.0 5.0 0.00 0.00 0.00 81 1010.1
20260903135058 55 269 2.0 6.0 0.00 0.00 0.00 81 1010.1
20260903134957 55 225 2.0 6.0 0.00 0.00 0.00 81 1009.9
20260903134857 55 242 2.0 6.0 0.00 0.00 0.00 81 1009.9
20260903134751 55 150 2.0 6.0 0.00 0.00 0.00 81 1009.9
20260903134650 55 160 2.0 6.0 0.00 0.00 0.00 81 1009.9
20260903134550 55 262 2.0 6.0 0.00 0.00 0.00 81 1009.9
20260903134449 55 249 2.0 6.0 0.00 0.00 0.00 81 1009.9
20260903134348 55 140 2.0 9.0 0.00 0.00 0.00 81 1009.9
20260903134255 55 234 2.0 9.0 0.00 0.00 0.00 81 1009.9
20260903134231 55 209 1.0 9.0 0.00 0.00 0.00 81 1009.9
20260903134211 55 242 2.0 9.0 0.00 0.00 0.00 81 1009.9
20260903133842 55 146 2.0 9.0 0.00 0.00 0.00 82 1009.8
20260903133751 55 202 2.0 9.0 0.00 0.00 0.00 82 1009.8
20260903133729 55 188 2.0 9.0 0.00 0.00 0.00 82 1009.8
20260903133707 56 238 3.0 9.0 0.00 0.00 0.00 82 1009.7
20260903133646 55 235 3.0 9.0 0.00 0.00 0.00 82 1009.7
20260903133611 55 257 3.0 9.0 0.00 0.00 0.00 81 1009.7
20260903133549 55 275 2.0 9.0 0.00 0.00 0.00 81 1009.7
20260903133529 55 190 2.0 9.0 0.00 0.00 0.00 81 1009.7
20260903133511 56 217 3.0 9.0 0.00 0.00 0.00 81 1009.6
20260903133204 56 187 3.0 9.0 0.00 0.00 0.00 81 1009.7
20260903132915 56 222 4.0 9.0 0.00 0.00 0.00 81 1009.7
20260903132625 56 194 2.0 8.0 0.00 0.00 0.00 81 1009.6
20260903132550 56 214 2.0 8.0 0.00 0.00 0.00 81 1009.6
20260903132527 56 189 3.0 8.0 0.00 0.00 0.00 81 1009.6
20260903131958 56 225 3.0 8.0 0.00 0.00 0.00 81 1009.6
20260903131921 56 171 3.0 8.0 0.00 0.00 0.00 81 1009.5
20260903131900 56 190 3.0 8.0 0.00 0.00 0.00 81 1009.5
20260903131552 56 211 3.0 7.0 0.00 0.00 0.00 82 1009.6
20260903131532 56 201 4.0 7.0 0.00 0.00 0.00 82 1009.5
20260903131454 55 248 4.0 7.0 0.00 0.00 0.00 82 1009.5
20260903131433 55 153 3.0 7.0 0.00 0.00 0.00 83 1009.5
20260903131412 55 205 2.0 7.0 0.00 0.00 0.00 83 1009.4
20260903131352 56 189 2.0 7.0 0.00 0.00 0.00 83 1009.4
20260903131329 55 156 2.0 7.0 0.00 0.00 0.00 83 1009.4
20260903131255 56 228 2.0 7.0 0.00 0.00 0.00 83 1009.4
20260903131004 56 174 1.0 6.0 0.00 0.00 0.00 83 1009.4
20260903130943 56 174 1.0 6.0 0.00 0.00 0.00 83 1009.5
20260903130639 56 265 2.0 6.0 0.00 0.00 0.00 83 1009.5
20260903130618 56 173 2.0 6.0 0.00 0.00 0.00 83 1009.5
20260903130553 56 229 2.0 6.0 0.00 0.00 0.00 83 1009.5
20260903130305 56 271 2.0 6.0 0.00 0.00 0.00 83 1009.5
20260903125959 56 254 2.0 6.0 0.00 0.00 0.00 83 1009.5
20260903125939 56 220 1.0 5.0 0.00 0.00 0.00 83 1009.5
20260903125403 56 140 1.0 6.0 0.00 0.00 0.00 83 1009.5
20260903125343 56 211 2.0 7.0 0.00 0.00 0.00 83 1009.5
20260903125012 56 211 2.0 7.0 0.00 0.00 0.00 83 1009.4
20260903124913 56 257 2.0 7.0 0.00 0.00 0.00 83 1009.4
20260903124811 56 253 2.0 7.0 0.00 0.00 0.00 83 1009.4
20260903124710 56 250 2.0 7.0 0.00 0.00 0.00 83 1009.4
20260903124610 56 171 2.0 7.0 0.00 0.00 0.00 84 1009.4
20260903124509 56 219 2.0 7.0 0.00 0.00 0.00 84 1009.4
20260903124422 56 178 3.0 7.0 0.00 0.00 0.00 83 1009.4
20260903124344 56 194 2.0 7.0 0.00 0.00 0.00 83 1009.4
20260903124324 56 215 2.0 7.0 0.00 0.00 0.00 83 1009.4
20260903124301 56 244 2.0 7.0 0.00 0.00 0.00 83 1009.5
20260903124008 56 103 3.0 7.0 0.00 0.00 0.00 83 1009.5
20260903123933 56 205 2.0 7.0 0.00 0.00 0.00 83 1009.5
20260903123631 56 193 3.0 7.0 0.00 0.00 0.00 84 1009.4
20260903123608 56 182 2.0 7.0 0.00 0.00 0.00 84 1009.5
20260903123548 56 214 2.0 7.0 0.00 0.00 0.00 83 1009.5
20260903123202 56 217 2.0 6.0 0.00 0.00 0.00 83 1009.5
20260903123102 56 180 2.0 6.0 0.00 0.00 0.00 83 1009.5
20260903123001 56 222 2.0 6.0 0.00 0.00 0.00 83 1009.5
20260903122900 56 180 2.0 6.0 0.00 0.00 0.00 83 1009.5
20260903122801 56 229 2.0 8.0 0.00 0.00 0.00 83 1009.5
20260903122701 56 238 3.0 8.0 0.00 0.00 0.00 83 1009.4
20260903122602 56 205 3.0 8.0 0.00 0.00 0.00 83 1009.4
20260903122528 56 222 3.0 10.0 0.00 0.00 0.00 83 1009.5
20260903122505 56 234 3.0 10.0 0.00 0.00 0.00 83 1009.5
20260903122430 56 178 3.0 10.0 0.00 0.00 0.00 83 1009.4
20260903122137 56 177 3.0 10.0 0.00 0.00 0.00 84 1009.5
20260903122115 56 240 4.0 10.0 0.00 0.00 0.00 84 1009.4
20260903122053 56 189 4.0 10.0 0.00 0.00 0.00 84 1009.5
20260903122017 56 155 4.0 10.0 0.00 0.00 0.00 84 1009.4
20260903121725 56 188 2.0 10.0 0.00 0.00 0.00 84 1009.4
20260903121703 56 158 2.0 7.0 0.00 0.00 0.00 84 1009.4
20260903121643 56 182 3.0 7.0 0.00 0.00 0.00 84 1009.4
20260903121605 56 207 3.0 7.0 0.00 0.00 0.00 84 1009.4
20260903121315 56 170 2.0 7.0 0.00 0.00 0.00 84 1009.5
20260903121254 56 213 3.0 7.0 0.00 0.00 0.00 84 1009.4
20260903121233 56 230 2.0 7.0 0.00 0.00 0.00 84 1009.4
20260903121155 56 155 2.0 7.0 0.00 0.00 0.00 84 1009.4
20260903121135 56 188 2.0 6.0 0.00 0.00 0.00 84 1009.4
20260903121113 56 239 2.0 6.0 0.00 0.00 0.00 84 1009.5
20260903120824 56 211 2.0 6.0 0.00 0.00 0.00 84 1009.4
20260903120748 56 166 1.0 6.0 0.00 0.00 0.00 83 1009.4
20260903120455 56 150 2.0 6.0 0.00 0.00 0.00 83 1009.4
20260903120434 56 213 0.0 6.0 0.00 0.00 0.00 83 1009.4
20260903120413 56 180 0.0 3.0 0.00 0.00 0.00 83 1009.4
20260903120337 56 165 1.0 4.0 0.00 0.00 0.00 83 1009.4
20260903115822 57 202 1.0 4.0 0.00 0.00 0.00 83 1009.4
20260903115250 57 202 1.0 4.0 0.00 0.00 0.00 83 1009.5
20260903115229 57 202 2.0 4.0 0.00 0.00 0.00 83 1009.5
20260903114906 57 232 0.0 4.0 0.00 0.00 0.00 83 1009.4
20260903114830 57 201 0.0 5.0 0.00 0.00 0.00 83 1009.4
20260903114809 57 237 0.0 5.0 0.00 0.00 0.00 83 1009.3
20260903114751 57 237 0.0 5.0 0.00 0.00 0.00 83 1009.4
20260903114503 57 237 1.0 5.0 0.00 0.00 0.00 83 1009.3
20260903114426 57 173 1.0 5.0 0.00 0.00 0.00 83 1009.3
20260903114407 57 208 1.0 5.0 0.00 0.00 0.00 83 1009.3
20260903114116 57 173 1.0 5.0 0.00 0.00 0.00 83 1009.3
20260903114055 57 187 1.0 5.0 0.00 0.00 0.00 83 1009.4
20260903113750 57 225 2.0 4.0 0.00 0.00 0.00 83 1009.3
20260903113725 57 175 1.0 4.0 0.00 0.00 0.00 83 1009.3
20260903113704 57 211 0.0 4.0 0.00 0.00 0.00 83 1009.3
20260903113645 57 150 0.0 5.0 0.00 0.00 0.00 83 1009.3
20260903113610 57 150 1.0 5.0 0.00 0.00 0.00 83 1009.3
20260903113547 58 224 1.0 5.0 0.00 0.00 0.00 82 1009.4
20260903113257 58 261 1.0 5.0 0.00 0.00 0.00 82 1009.4
20260903113236 58 279 2.0 5.0 0.00 0.00 0.00 82 1009.3
20260903113201 58 242 2.0 5.0 0.00 0.00 0.00 82 1009.4
20260903113140 58 191 2.0 5.0 0.00 0.00 0.00 82 1009.4
20260903113118 58 216 2.0 5.0 0.00 0.00 0.00 82 1009.4
20260903113057 58 250 1.0 5.0 0.00 0.00 0.00 82 1009.4
20260903112754 58 278 1.0 6.0 0.00 0.00 0.00 82 1009.4
20260903112506 58 163 1.0 7.0 0.00 0.00 0.00 82 1009.3
20260903112445 58 261 2.0 8.0 0.00 0.00 0.00 82 1009.3
20260903112142 58 278 2.0 8.0 0.00 0.00 0.00 82 1009.2
20260903112120 58 266 2.0 9.0 0.00 0.00 0.00 82 1009.2
20260903111830 58 187 3.0 9.0 0.00 0.00 0.00 82 1009.1
20260903111257 58 171 5.0 9.0 0.00 0.00 0.00 82 1009.0
20260903110928 58 193 5.0 13.0 0.00 0.00 0.00 82 1008.9
20260903110855 58 166 4.0 13.0 0.00 0.00 0.00 82 1009.0
20260903110816 58 182 3.0 13.0 0.00 0.00 0.00 82 1009.0
20260903110755 58 150 4.0 13.0 0.00 0.00 0.00 82 1008.9
20260903110423 58 180 6.0 13.0 0.00 0.00 0.00 82 1008.8
20260903110322 58 190 6.0 13.0 0.00 0.00 0.00 82 1008.9
20260903110222 58 181 6.0 13.0 0.00 0.00 0.00 82 1008.9
20260903110132 58 152 7.0 13.0 0.00 0.00 0.00 82 1008.8
20260903110110 58 203 6.0 12.0 0.00 0.00 0.00 82 1008.7
20260903110049 58 177 5.0 9.0 0.00 0.00 0.00 82 1008.8
20260903105719 58 184 5.0 10.0 0.00 0.00 0.00 82 1008.8
20260903105619 58 162 5.0 11.0 0.00 0.00 0.00 82 1008.8
20260903105517 58 128 5.0 11.0 0.00 0.00 0.00 82 1008.8
20260903105418 58 192 5.0 11.0 0.00 0.00 0.00 82 1008.7
20260903105317 58 152 5.0 11.0 0.00 0.00 0.00 82 1008.7
20260903105216 58 145 4.0 11.0 0.00 0.00 0.00 82 1008.7
20260903105116 58 175 4.0 11.0 0.00 0.00 0.00 82 1008.8
20260903105015 58 152 5.0 11.0 0.00 0.00 0.00 82 1008.7
20260903104914 58 168 5.0 12.0 0.00 0.00 0.00 82 1008.7
20260903104820 58 172 6.0 12.0 0.00 0.00 0.00 82 1008.7
20260903104714 58 151 5.0 12.0 0.00 0.00 0.00 82 1008.7
20260903104612 58 165 4.0 13.0 0.00 0.00 0.00 82 1008.7
20260903104514 58 155 6.0 13.0 0.00 0.00 0.00 82 1008.7
20260903104413 58 178 6.0 13.0 0.00 0.00 0.00 82 1008.7
20260903104312 58 158 6.0 13.0 0.00 0.00 0.00 82 1008.6
20260903104223 58 168 6.0 13.0 0.00 0.00 0.00 82 1008.6
20260903104200 58 188 6.0 13.0 0.00 0.00 0.00 82 1008.7
20260903104140 58 180 5.0 13.0 0.00 0.00 0.00 82 1008.6
20260903103808 58 157 7.0 13.0 0.00 0.00 0.00 83 1008.6
20260903103707 58 168 5.0 13.0 0.00 0.00 0.00 83 1008.6
20260903103606 58 164 6.0 9.0 0.00 0.00 0.00 83 1008.7
20260903103505 58 159 5.0 10.0 0.00 0.00 0.00 83 1008.6
20260903103403 58 172 4.0 10.0 0.00 0.00 0.00 83 1008.6
20260903103303 58 178 4.0 10.0 0.00 0.00 0.00 83 1008.7
20260903103202 58 148 5.0 10.0 0.00 0.00 0.00 83 1008.7
20260903103102 58 166 5.0 10.0 0.00 0.00 0.00 83 1008.7
20260903103003 58 172 5.0 10.0 0.00 0.00 0.00 83 1008.8
20260903102916 58 187 3.0 10.0 0.00 0.00 0.00 83 1008.7
20260903102856 58 154 4.0 10.0 0.00 0.00 0.00 83 1008.8
20260903102818 58 169 4.0 10.0 0.00 0.00 0.00 83 1008.8
20260903102758 58 182 4.0 10.0 0.00 0.00 0.00 83 1008.8
20260903102736 58 145 3.0 10.0 0.00 0.00 0.00 83 1008.8
20260903102445 58 159 4.0 10.0 0.00 0.00 0.00 83 1008.7
20260903102102 58 171 4.0 10.0 0.00 0.00 0.00 83 1008.7
20260903102003 58 179 3.0 10.0 0.00 0.00 0.00 83 1008.7
20260903101901 58 210 3.0 9.0 0.00 0.00 0.00 83 1008.7
20260903101802 58 211 2.0 9.0 0.00 0.00 0.00 83 1008.7
20260903101701 58 237 2.0 9.0 0.00 0.00 0.00 83 1008.7
20260903101601 58 192 4.0 9.0 0.00 0.00 0.00 83 1008.8
20260903101500 58 205 4.0 9.0 0.00 0.00 0.00 83 1008.7
20260903101423 58 184 4.0 9.0 0.00 0.00 0.00 83 1008.7
20260903101359 58 185 4.0 9.0 0.00 0.00 0.00 83 1008.6
20260903101326 59 157 4.0 9.0 0.00 0.00 0.00 83 1008.7
20260903101308 59 222 3.0 9.0 0.00 0.00 0.00 83 1008.6
20260903101015 59 221 3.0 9.0 0.00 0.00 0.00 82 1008.7
20260903100953 59 197 3.0 9.0 0.00 0.00 0.00 82 1008.7
20260903100918 59 246 3.0 9.0 0.00 0.00 0.00 83 1008.7
20260903100627 59 200 1.0 6.0 0.00 0.00 0.00 82 1008.7
20260903100250 59 240 2.0 4.0 0.00 0.00 0.00 82 1008.6
20260903100150 59 233 2.0 5.0 0.00 0.00 0.00 82 1008.7
20260903100049 59 142 2.0 6.0 0.00 0.00 0.00 82 1008.7
20260903095948 59 130 2.0 6.0 0.00 0.00 0.00 82 1008.7
20260903095848 59 252 2.0 6.0 0.00 0.00 0.00 82 1008.6
20260903095747 59 186 2.0 6.0 0.00 0.00 0.00 82 1008.7
20260903095647 59 234 2.0 6.0 0.00 0.00 0.00 81 1008.7
20260903095546 59 219 1.0 6.0 0.00 0.00 0.00 81 1008.6
20260903095445 59 229 2.0 6.0 0.00 0.00 0.00 81 1008.7
20260903095344 59 186 2.0 6.0 0.00 0.00 0.00 81 1008.6
20260903095244 59 205 2.0 6.0 0.00 0.00 0.00 81 1008.6
20260903095145 59 167 2.0 6.0 0.00 0.00 0.00 81 1008.6
20260903095044 59 198 2.0 6.0 0.00 0.00 0.00 82 1008.6
20260903094943 59 204 2.0 6.0 0.00 0.00 0.00 82 1008.6
20260903094843 59 159 3.0 6.0 0.00 0.00 0.00 82 1008.6
20260903094742 59 212 3.0 6.0 0.00 0.00 0.00 82 1008.5
20260903094641 59 182 2.0 6.0 0.00 0.00 0.00 82 1008.5
20260903094541 59 201 1.0 6.0 0.00 0.00 0.00 82 1008.6
20260903094441 59 167 0.0 4.0 0.00 0.00 0.00 82 1008.6
20260903094339 59 211 0.0 4.0 0.00 0.00 0.00 82 1008.6
20260903094238 59 211 1.0 8.0 0.00 0.00 0.00 82 1008.6
20260903094140 59 211 2.0 8.0 0.00 0.00 0.00 82 1008.6
20260903094040 59 254 2.0 8.0 0.00 0.00 0.00 82 1008.6
20260903093938 59 201 2.0 8.0 0.00 0.00 0.00 82 1008.6
20260903093832 59 109 2.0 8.0 0.00 0.00 0.00 82 1008.6
20260903093730 59 216 2.0 8.0 0.00 0.00 0.00 82 1008.6
20260903093629 59 181 2.0 8.0 0.00 0.00 0.00 82 1008.6
20260903093532 59 250 3.0 8.0 0.00 0.00 0.00 82 1008.6
20260903093432 59 194 3.0 8.0 0.00 0.00 0.00 81 1008.6
20260903093330 59 165 3.0 8.0 0.00 0.00 0.00 81 1008.6
20260903093256 59 209 3.0 8.0 0.00 0.00 0.00 81 1008.6
20260903093221 59 186 3.0 10.0 0.00 0.00 0.00 81 1008.6
20260903093200 59 279 2.0 10.0 0.00 0.00 0.00 81 1008.6
20260903092842 59 161 2.0 11.0 0.00 0.00 0.00 81 1008.6
20260903092818 59 199 3.0 11.0 0.00 0.00 0.00 81 1008.6
20260903092742 59 188 4.0 11.0 0.00 0.00 0.00 80 1008.6
20260903092722 59 189 3.0 11.0 0.00 0.00 0.00 80 1008.6
20260903092700 59 212 3.0 12.0 0.00 0.00 0.00 80 1008.6
20260903092638 59 199 4.0 12.0 0.00 0.00 0.00 80 1008.6
20260903092617 59 232 3.0 12.0 0.00 0.00 0.00 80 1008.5
20260903092543 60 194 4.0 12.0 0.00 0.00 0.00 80 1008.5
20260903092521 60 225 4.0 12.0 0.00 0.00 0.00 80 1008.5
20260903092501 60 217 3.0 12.0 0.00 0.00 0.00 80 1008.4
20260903092439 60 197 4.0 12.0 0.00 0.00 0.00 80 1008.4
20260903092419 60 208 5.0 12.0 0.00 0.00 0.00 80 1008.4
20260903092344 60 182 5.0 12.0 0.00 0.00 0.00 80 1008.3
20260903091555 60 193 3.0 7.0 0.00 0.00 0.00 79 1008.3
20260903091253 60 155 3.0 7.0 0.00 0.00 0.00 79 1008.3
20260903091230 60 261 3.0 10.0 0.00 0.00 0.00 79 1008.2
20260903090629 60 227 2.0 10.0 0.00 0.00 0.00 79 1008.1
20260903090529 60 188 3.0 10.0 0.00 0.00 0.00 79 1008.2
20260903090456 60 161 4.0 10.0 0.00 0.00 0.00 78 1008.1
20260903090434 60 130 4.0 10.0 0.00 0.00 0.00 78 1008.1
20260903090413 60 211 4.0 10.0 0.00 0.00 0.00 78 1008.1
20260903090024 60 213 4.0 10.0 0.00 0.00 0.00 78 1008.1
20260903085924 60 213 4.0 10.0 0.00 0.00 0.00 78 1008.1
20260903085835 60 211 4.0 10.0 0.00 0.00 0.00 78 1008.1
20260903085811 60 221 4.0 10.0 0.00 0.00 0.00 78 1008.1
20260903085736 60 202 3.0 10.0 0.00 0.00 0.00 78 1008.2
20260903085716 60 227 2.0 7.0 0.00 0.00 0.00 78 1008.1
20260903085423 60 191 3.0 7.0 0.00 0.00 0.00 78 1008.1
20260903085402 60 192 3.0 7.0 0.00 0.00 0.00 78 1008.1
20260903085017 60 198 4.0 7.0 0.00 0.00 0.00 78 1008.0
20260903084919 60 154 4.0 7.0 0.00 0.00 0.00 78 1008.0
20260903084816 60 166 3.0 6.0 0.00 0.00 0.00 77 1007.9
20260903084716 60 206 3.0 6.0 0.00 0.00 0.00 77 1007.9
20260903084627 60 210 3.0 6.0 0.00 0.00 0.00 77 1008.0
20260903084605 60 168 2.0 6.0 0.00 0.00 0.00 77 1007.9
20260903084543 60 179 2.0 6.0 0.00 0.00 0.00 77 1007.9
20260903084211 60 240 2.0 7.0 0.00 0.00 0.00 77 1007.9
20260903084112 60 195 2.0 7.0 0.00 0.00 0.00 77 1007.9
20260903084010 60 176 2.0 7.0 0.00 0.00 0.00 77 1007.9
20260903083913 60 189 2.0 7.0 0.00 0.00 0.00 77 1007.9
20260903083809 60 236 3.0 7.0 0.00 0.00 0.00 77 1007.9
20260903083710 60 136 4.0 7.0 0.00 0.00 0.00 77 1008.0
20260903083622 60 193 4.0 7.0 0.00 0.00 0.00 77 1008.0
20260903083600 60 172 4.0 7.0 0.00 0.00 0.00 77 1007.9
20260903083538 60 250 4.0 7.0 0.00 0.00 0.00 77 1007.9
20260903083235 60 175 3.0 8.0 0.00 0.00 0.00 77 1007.9
20260903083159 60 160 3.0 8.0 0.00 0.00 0.00 77 1008.0
20260903083136 60 172 3.0 8.0 0.00 0.00 0.00 77 1007.9
20260903082843 60 268 3.0 9.0 0.00 0.00 0.00 78 1007.9
20260903082821 60 186 4.0 9.0 0.00 0.00 0.00 78 1007.9
20260903082746 60 161 3.0 9.0 0.00 0.00 0.00 78 1007.8
20260903082453 60 221 2.0 9.0 0.00 0.00 0.00 78 1007.7
20260903082432 60 215 2.0 9.0 0.00 0.00 0.00 78 1007.8
20260903082114 60 186 4.0 9.0 0.00 0.00 0.00 78 1007.8
20260903082053 60 261 3.0 9.0 0.00 0.00 0.00 78 1007.8
20260903082034 59 164 2.0 9.0 0.00 0.00 0.00 78 1007.8
20260903081703 59 182 2.0 6.0 0.00 0.00 0.00 78 1007.8
20260903081601 59 209 2.0 6.0 0.00 0.00 0.00 79 1007.9
20260903081500 59 204 2.0 6.0 0.00 0.00 0.00 79 1007.8
20260903081400 59 230 2.0 6.0 0.00 0.00 0.00 79 1007.8
20260903081301 59 221 2.0 6.0 0.00 0.00 0.00 79 1007.7
20260903081201 59 210 3.0 6.0 0.00 0.00 0.00 79 1007.7
20260903081101 59 198 2.0 6.0 0.00 0.00 0.00 79 1007.6
20260903080957 59 99 2.0 5.0 0.00 0.00 0.00 80 1007.6
20260903080857 59 271 2.0 5.0 0.00 0.00 0.00 79 1007.6
20260903080759 59 196 3.0 5.0 0.00 0.00 0.00 80 1007.6
20260903080659 59 209 2.0 5.0 0.00 0.00 0.00 80 1007.5
20260903080550 59 166 2.0 6.0 0.00 0.00 0.00 80 1007.6
20260903080451 59 202 3.0 6.0 0.00 0.00 0.00 80 1007.6
20260903080349 59 233 2.0 6.0 0.00 0.00 0.00 80 1007.6
20260903080250 59 210 2.0 6.0 0.00 0.00 0.00 80 1007.6
20260903080152 59 240 2.0 6.0 0.00 0.00 0.00 80 1007.5
20260903080049 59 220 2.0 6.0 0.00 0.00 0.00 80 1007.5
20260903075947 59 214 2.0 6.0 0.00 0.00 0.00 80 1007.5
20260903075848 59 250 2.0 6.0 0.00 0.00 0.00 80 1007.5
20260903075746 59 213 2.0 7.0 0.00 0.00 0.00 80 1007.6
20260903075650 59 207 2.0 7.0 0.00 0.00 0.00 80 1007.6
20260903075544 59 150 2.0 9.0 0.00 0.00 0.00 80 1007.6
20260903075444 59 208 2.0 9.0 0.00 0.00 0.00 80 1007.6
20260903075342 59 244 2.0 9.0 0.00 0.00 0.00 80 1007.6
20260903075243 59 188 2.0 9.0 0.00 0.00 0.00 80 1007.6
20260903075147 59 229 3.0 9.0 0.00 0.00 0.00 80 1007.6
20260903075041 59 186 4.0 9.0 0.00 0.00 0.00 80 1007.6
20260903074941 59 178 4.0 9.0 0.00 0.00 0.00 80 1007.6
20260903074840 59 192 4.0 9.0 0.00 0.00 0.00 80 1007.7
20260903074739 59 198 4.0 9.0 0.00 0.00 0.00 81 1007.6
20260903074645 59 192 3.0 9.0 0.00 0.00 0.00 81 1007.6
20260903074548 59 187 2.0 9.0 0.00 0.00 0.00 81 1007.6
20260903074528 59 166 2.0 9.0 0.00 0.00 0.00 81 1007.6
20260903074506 59 173 3.0 9.0 0.00 0.00 0.00 81 1007.6
20260903074143 59 190 3.0 9.0 0.00 0.00 0.00 82 1007.7
20260903074037 59 227 2.0 9.0 0.00 0.00 0.00 82 1007.7
20260903073934 59 172 3.0 9.0 0.00 0.00 0.00 82 1007.6
20260903073842 59 163 4.0 9.0 0.00 0.00 0.00 82 1007.7
20260903073816 59 164 3.0 9.0 0.00 0.00 0.00 82 1007.7
20260903073754 59 245 3.0 11.0 0.00 0.00 0.00 82 1007.6
20260903073719 59 216 3.0 11.0 0.00 0.00 0.00 82 1007.7
20260903073659 59 180 3.0 11.0 0.00 0.00 0.00 82 1007.6
20260903073636 59 215 3.0 11.0 0.00 0.00 0.00 82 1007.6
20260903073029 59 135 3.0 15.0 0.00 0.00 0.00 82 1007.5
20260903072929 59 128 4.0 15.0 0.00 0.00 0.00 82 1007.5
20260903072831 59 204 5.0 15.0 0.00 0.00 0.00 82 1007.5
20260903072729 59 174 5.0 15.0 0.00 0.00 0.00 82 1007.5
20260903072638 59 227 4.0 15.0 0.00 0.00 0.00 82 1007.5
20260903072529 59 190 4.0 15.0 0.00 0.00 0.00 82 1007.5
20260903072449 59 180 5.0 15.0 0.00 0.00 0.00 82 1007.4
20260903072426 59 178 5.0 15.0 0.00 0.00 0.00 82 1007.4
20260903072407 59 143 5.0 15.0 0.00 0.00 0.00 82 1007.4
20260903072030 59 163 5.0 12.0 0.00 0.00 0.00 81 1007.5
20260903071928 59 190 5.0 12.0 0.00 0.00 0.00 81 1007.5
20260903071828 59 248 6.0 12.0 0.00 0.00 0.00 81 1007.5
20260903071753 59 180 6.0 12.0 0.00 0.00 0.00 81 1007.6